| time (UTC) | temp F | wind direction | speed MPH | gust MPH | rain 1hr in | rain 24hr in | rain mn in | humidity % | barometer mb |
| 20260504033404 | 60 | 286 | 2.0 | 3.0 | 0.00 | 0.00 | 0.00 | 67 | 1017.2 |
| 20260504033305 | 60 | 287 | 2.0 | 3.0 | 0.00 | 0.00 | 0.00 | 67 | 1017.3 |
| 20260504033205 | 60 | 289 | 2.0 | 3.0 | 0.00 | 0.00 | 0.00 | 67 | 1017.3 |
| 20260504033107 | 60 | 293 | 2.0 | 4.0 | 0.00 | 0.00 | 0.00 | 67 | 1017.2 |
| 20260504033004 | 60 | 293 | 2.0 | 6.0 | 0.00 | 0.00 | 0.00 | 67 | 1017.2 |
| 20260504032904 | 60 | 292 | 2.0 | 6.0 | 0.00 | 0.00 | 0.00 | 67 | 1017.2 |
| 20260504032804 | 60 | 293 | 2.0 | 6.0 | 0.00 | 0.00 | 0.00 | 67 | 1017.2 |
| 20260504032704 | 60 | 292 | 2.0 | 6.0 | 0.00 | 0.00 | 0.00 | 67 | 1017.2 |
| 20260504032604 | 60 | 293 | 2.0 | 7.0 | 0.00 | 0.00 | 0.00 | 67 | 1017.2 |
| 20260504032505 | 60 | 293 | 2.0 | 7.0 | 0.00 | 0.00 | 0.00 | 67 | 1017.2 |
| 20260504032404 | 60 | 294 | 2.0 | 7.0 | 0.00 | 0.00 | 0.00 | 67 | 1017.2 |
| 20260504032304 | 60 | 295 | 2.0 | 7.0 | 0.00 | 0.00 | 0.00 | 67 | 1017.1 |
| 20260504032204 | 60 | 296 | 1.0 | 7.0 | 0.00 | 0.00 | 0.00 | 67 | 1017.1 |
| 20260504032104 | 60 | 297 | 1.0 | 7.0 | 0.00 | 0.00 | 0.00 | 67 | 1017.1 |
| 20260504032004 | 60 | 298 | 1.0 | 7.0 | 0.00 | 0.00 | 0.00 | 66 | 1017.2 |
| 20260504031904 | 60 | 299 | 1.0 | 7.0 | 0.00 | 0.00 | 0.00 | 66 | 1017.2 |
| 20260504031806 | 60 | 299 | 1.0 | 7.0 | 0.00 | 0.00 | 0.00 | 66 | 1017.2 |
| 20260504031706 | 60 | 299 | 1.0 | 7.0 | 0.00 | 0.00 | 0.00 | 65 | 1017.2 |
| 20260504031604 | 60 | 300 | 1.0 | 4.0 | 0.00 | 0.00 | 0.00 | 64 | 1017.1 |
| 20260504031504 | 60 | 300 | 1.0 | 4.0 | 0.00 | 0.00 | 0.00 | 64 | 1017.2 |
| 20260504031404 | 60 | 299 | 1.0 | 4.0 | 0.00 | 0.00 | 0.00 | 63 | 1017.2 |
| 20260504031304 | 60 | 294 | 2.0 | 4.0 | 0.00 | 0.00 | 0.00 | 63 | 1017.1 |
| 20260504031204 | 60 | 289 | 2.0 | 4.0 | 0.00 | 0.00 | 0.00 | 63 | 1017.1 |
| 20260504031104 | 60 | 280 | 2.0 | 2.0 | 0.00 | 0.00 | 0.00 | 62 | 1017.1 |
| 20260504031004 | 60 | 276 | 2.0 | 3.0 | 0.00 | 0.00 | 0.00 | 61 | 1017.2 |
| 20260504030904 | 60 | 271 | 2.0 | 3.0 | 0.00 | 0.00 | 0.00 | 60 | 1017.2 |
| 20260504030804 | 60 | 274 | 2.0 | 3.0 | 0.00 | 0.00 | 0.00 | 60 | 1017.2 |
| 20260504030704 | 60 | 277 | 2.0 | 4.0 | 0.00 | 0.00 | 0.00 | 59 | 1017.2 |
| 20260504030604 | 60 | 277 | 2.0 | 4.0 | 0.00 | 0.00 | 0.00 | 59 | 1017.2 |
| 20260504030504 | 60 | 279 | 2.0 | 4.0 | 0.00 | 0.00 | 0.00 | 59 | 1017.2 |
| 20260504030404 | 60 | 280 | 2.0 | 4.0 | 0.00 | 0.00 | 0.00 | 59 | 1017.2 |
| 20260504030306 | 60 | 282 | 2.0 | 4.0 | 0.00 | 0.00 | 0.00 | 59 | 1017.2 |
| 20260504030206 | 60 | 283 | 2.0 | 4.0 | 0.00 | 0.00 | 0.00 | 59 | 1017.2 |
| 20260504030105 | 60 | 286 | 2.0 | 4.0 | 0.00 | 0.00 | 0.00 | 58 | 1017.2 |
| 20260504030004 | 60 | 288 | 2.0 | 4.0 | 0.00 | 0.00 | 0.00 | 59 | 1017.2 |
| 20260504025904 | 60 | 292 | 2.0 | 4.0 | 0.00 | 0.00 | 0.00 | 59 | 1017.1 |
| 20260504025804 | 60 | 293 | 2.0 | 4.0 | 0.00 | 0.00 | 0.00 | 59 | 1017.1 |
| 20260504025704 | 60 | 296 | 1.0 | 4.0 | 0.00 | 0.00 | 0.00 | 59 | 1017.2 |
| 20260504025604 | 60 | 298 | 1.0 | 4.0 | 0.00 | 0.00 | 0.00 | 58 | 1017.2 |
| 20260504025504 | 60 | 300 | 1.0 | 4.0 | 0.00 | 0.00 | 0.00 | 58 | 1017.2 |
| 20260504025405 | 60 | 302 | 1.0 | 4.0 | 0.00 | 0.00 | 0.00 | 59 | 1017.2 |
| 20260504025304 | 60 | 305 | 1.0 | 4.0 | 0.00 | 0.00 | 0.00 | 58 | 1017.2 |
| 20260504025204 | 60 | 309 | 1.0 | 4.0 | 0.00 | 0.00 | 0.00 | 59 | 1017.2 |
| 20260504025104 | 60 | 314 | 1.0 | 3.0 | 0.00 | 0.00 | 0.00 | 59 | 1017.2 |
| 20260504025005 | 60 | 317 | 2.0 | 3.0 | 0.00 | 0.00 | 0.00 | 60 | 1017.2 |
| 20260504024904 | 60 | 321 | 2.0 | 3.0 | 0.00 | 0.00 | 0.00 | 60 | 1017.2 |
| 20260504024804 | 60 | 324 | 2.0 | 3.0 | 0.00 | 0.00 | 0.00 | 61 | 1017.2 |
| 20260504024704 | 60 | 326 | 2.0 | 3.0 | 0.00 | 0.00 | 0.00 | 61 | 1017.2 |
| 20260504024604 | 60 | 327 | 2.0 | 3.0 | 0.00 | 0.00 | 0.00 | 63 | 1017.2 |
| 20260504024504 | 60 | 328 | 2.0 | 3.0 | 0.00 | 0.00 | 0.00 | 64 | 1017.2 |
| 20260504024404 | 60 | 330 | 3.0 | 3.0 | 0.00 | 0.00 | 0.00 | 65 | 1017.2 |
| 20260504024304 | 60 | 328 | 3.0 | 4.0 | 0.00 | 0.00 | 0.00 | 65 | 1017.2 |
| 20260504024204 | 60 | 325 | 3.0 | 5.0 | 0.00 | 0.00 | 0.00 | 65 | 1017.2 |
| 20260504024104 | 60 | 322 | 3.0 | 5.0 | 0.00 | 0.00 | 0.00 | 65 | 1017.3 |
| 20260504024004 | 60 | 324 | 3.0 | 5.0 | 0.00 | 0.00 | 0.00 | 65 | 1017.3 |
| 20260504023904 | 60 | 324 | 3.0 | 5.0 | 0.00 | 0.00 | 0.00 | 64 | 1017.3 |
| 20260504023804 | 60 | 325 | 3.0 | 5.0 | 0.00 | 0.00 | 0.00 | 65 | 1017.3 |
| 20260504023704 | 61 | 328 | 3.0 | 5.0 | 0.00 | 0.00 | 0.00 | 66 | 1017.3 |
| 20260504023609 | 61 | 328 | 3.0 | 5.0 | 0.00 | 0.00 | 0.00 | 67 | 1017.3 |
| 20260504023506 | 61 | 330 | 3.0 | 5.0 | 0.00 | 0.00 | 0.00 | 67 | 1017.3 |
| 20260504023422 | 61 | 329 | 3.0 | 5.0 | 0.00 | 0.00 | 0.00 | 68 | 1017.3 |
| 20260504023305 | 61 | 330 | 3.0 | 5.0 | 0.00 | 0.00 | 0.00 | 67 | 1017.3 |
| 20260504023216 | 61 | 333 | 3.0 | 5.0 | 0.00 | 0.00 | 0.00 | 70 | 1017.3 |
| 20260504023108 | 61 | 342 | 3.0 | 5.0 | 0.00 | 0.00 | 0.00 | 68 | 1017.3 |
| 20260504023005 | 61 | 345 | 3.0 | 7.0 | 0.00 | 0.00 | 0.00 | 70 | 1017.3 |
| 20260504022904 | 61 | 347 | 3.0 | 7.0 | 0.00 | 0.00 | 0.00 | 68 | 1017.3 |
| 20260504022805 | 61 | 348 | 3.0 | 7.0 | 0.00 | 0.00 | 0.00 | 70 | 1017.3 |
| 20260504022705 | 61 | 345 | 3.0 | 7.0 | 0.00 | 0.00 | 0.00 | 68 | 1017.3 |
| 20260504022605 | 61 | 345 | 3.0 | 7.0 | 0.00 | 0.00 | 0.00 | 68 | 1017.3 |
| 20260504022505 | 61 | 344 | 3.0 | 7.0 | 0.00 | 0.00 | 0.00 | 68 | 1017.3 |
| 20260504022404 | 61 | 345 | 3.0 | 7.0 | 0.00 | 0.00 | 0.00 | 69 | 1017.4 |
| 20260504022305 | 61 | 346 | 3.0 | 7.0 | 0.00 | 0.00 | 0.00 | 69 | 1017.4 |
| 20260504022205 | 61 | 344 | 3.0 | 7.0 | 0.00 | 0.00 | 0.00 | 70 | 1017.4 |
| 20260504022104 | 61 | 336 | 3.0 | 7.0 | 0.00 | 0.00 | 0.00 | 66 | 1017.4 |
| 20260504022005 | 61 | 333 | 3.0 | 5.0 | 0.00 | 0.00 | 0.00 | 65 | 1017.4 |
| 20260504021904 | 61 | 331 | 3.0 | 5.0 | 0.00 | 0.00 | 0.00 | 66 | 1017.4 |
| 20260504021806 | 61 | 329 | 3.0 | 5.0 | 0.00 | 0.00 | 0.00 | 66 | 1017.4 |
| 20260504021707 | 61 | 327 | 3.0 | 5.0 | 0.00 | 0.00 | 0.00 | 66 | 1017.4 |
| 20260504021605 | 61 | 325 | 3.0 | 5.0 | 0.00 | 0.00 | 0.00 | 66 | 1017.4 |
| 20260504021504 | 61 | 323 | 3.0 | 5.0 | 0.00 | 0.00 | 0.00 | 67 | 1017.4 |
| 20260504021404 | 61 | 318 | 3.0 | 5.0 | 0.00 | 0.00 | 0.00 | 66 | 1017.4 |
| 20260504021305 | 61 | 315 | 3.0 | 5.0 | 0.00 | 0.00 | 0.00 | 65 | 1017.4 |
| 20260504021217 | 61 | 313 | 3.0 | 5.0 | 0.00 | 0.00 | 0.00 | 66 | 1017.4 |
| 20260504021104 | 61 | 311 | 3.0 | 5.0 | 0.00 | 0.00 | 0.00 | 67 | 1017.4 |
| 20260504021005 | 60 | 310 | 3.0 | 5.0 | 0.00 | 0.00 | 0.00 | 68 | 1017.4 |
| 20260504020904 | 60 | 308 | 3.0 | 5.0 | 0.00 | 0.00 | 0.00 | 66 | 1017.4 |
| 20260504020804 | 60 | 308 | 3.0 | 5.0 | 0.00 | 0.00 | 0.00 | 65 | 1017.4 |
| 20260504020705 | 60 | 308 | 3.0 | 5.0 | 0.00 | 0.00 | 0.00 | 63 | 1017.4 |
| 20260504020604 | 60 | 308 | 3.0 | 5.0 | 0.00 | 0.00 | 0.00 | 65 | 1017.4 |
| 20260504020505 | 60 | 306 | 3.0 | 5.0 | 0.00 | 0.00 | 0.00 | 63 | 1017.4 |
| 20260504020404 | 60 | 308 | 3.0 | 5.0 | 0.00 | 0.00 | 0.00 | 63 | 1017.4 |
| 20260504020305 | 60 | 308 | 3.0 | 5.0 | 0.00 | 0.00 | 0.00 | 65 | 1017.4 |
| 20260504020205 | 60 | 310 | 2.0 | 5.0 | 0.00 | 0.00 | 0.00 | 65 | 1017.4 |
| 20260504020104 | 60 | 316 | 2.0 | 5.0 | 0.00 | 0.00 | 0.00 | 66 | 1017.4 |
| 20260504020005 | 60 | 321 | 2.0 | 4.0 | 0.00 | 0.00 | 0.00 | 65 | 1017.4 |
| 20260504015904 | 60 | 325 | 2.0 | 4.0 | 0.00 | 0.00 | 0.00 | 65 | 1017.4 |
| 20260504015804 | 60 | 327 | 2.0 | 4.0 | 0.00 | 0.00 | 0.00 | 66 | 1017.4 |
| 20260504015704 | 60 | 328 | 2.0 | 4.0 | 0.00 | 0.00 | 0.00 | 64 | 1017.4 |
| 20260504015604 | 60 | 329 | 2.0 | 4.0 | 0.00 | 0.00 | 0.00 | 65 | 1017.4 |
| 20260504015505 | 60 | 329 | 2.0 | 4.0 | 0.00 | 0.00 | 0.00 | 64 | 1017.4 |
| 20260504015404 | 60 | 330 | 2.0 | 4.0 | 0.00 | 0.00 | 0.00 | 64 | 1017.4 |
| 20260504015305 | 61 | 332 | 2.0 | 3.0 | 0.00 | 0.00 | 0.00 | 65 | 1017.4 |
| 20260504015204 | 61 | 330 | 2.0 | 3.0 | 0.00 | 0.00 | 0.00 | 65 | 1017.4 |
| 20260504015104 | 61 | 322 | 2.0 | 3.0 | 0.00 | 0.00 | 0.00 | 65 | 1017.4 |
| 20260504015005 | 61 | 313 | 2.0 | 3.0 | 0.00 | 0.00 | 0.00 | 65 | 1017.4 |
| 20260504014904 | 61 | 307 | 2.0 | 3.0 | 0.00 | 0.00 | 0.00 | 65 | 1017.4 |
| 20260504014809 | 61 | 307 | 2.0 | 4.0 | 0.00 | 0.00 | 0.00 | 65 | 1017.4 |
| 20260504014704 | 61 | 308 | 2.0 | 4.0 | 0.00 | 0.00 | 0.00 | 66 | 1017.4 |
| 20260504014605 | 61 | 308 | 2.0 | 4.0 | 0.00 | 0.00 | 0.00 | 64 | 1017.4 |
| 20260504014504 | 61 | 308 | 2.0 | 4.0 | 0.00 | 0.00 | 0.00 | 64 | 1017.3 |
| 20260504014404 | 61 | 308 | 2.0 | 4.0 | 0.00 | 0.00 | 0.00 | 65 | 1017.3 |
| 20260504014304 | 61 | 308 | 2.0 | 4.0 | 0.00 | 0.00 | 0.00 | 65 | 1017.4 |
| 20260504014204 | 61 | 308 | 2.0 | 4.0 | 0.00 | 0.00 | 0.00 | 66 | 1017.3 |
| 20260504014104 | 61 | 308 | 2.0 | 4.0 | 0.00 | 0.00 | 0.00 | 66 | 1017.3 |
| 20260504014004 | 61 | 307 | 2.0 | 4.0 | 0.00 | 0.00 | 0.00 | 67 | 1017.3 |
| 20260504013904 | 61 | 307 | 2.0 | 4.0 | 0.00 | 0.00 | 0.00 | 64 | 1017.3 |
| 20260504013804 | 61 | 304 | 2.0 | 3.0 | 0.00 | 0.00 | 0.00 | 65 | 1017.4 |
| 20260504013704 | 61 | 302 | 2.0 | 3.0 | 0.00 | 0.00 | 0.00 | 65 | 1017.4 |
| 20260504013605 | 61 | 300 | 2.0 | 3.0 | 0.00 | 0.00 | 0.00 | 64 | 1017.4 |
| 20260504013504 | 61 | 300 | 2.0 | 3.0 | 0.00 | 0.00 | 0.00 | 64 | 1017.3 |
| 20260504013404 | 61 | 300 | 2.0 | 3.0 | 0.00 | 0.00 | 0.00 | 64 | 1017.3 |
| 20260504013309 | 61 | 300 | 2.0 | 3.0 | 0.00 | 0.00 | 0.00 | 64 | 1017.3 |
| 20260504013205 | 61 | 300 | 2.0 | 3.0 | 0.00 | 0.00 | 0.00 | 64 | 1017.4 |
| 20260504013105 | 61 | 300 | 2.0 | 4.0 | 0.00 | 0.00 | 0.00 | 64 | 1017.4 |
| 20260504013005 | 61 | 298 | 2.0 | 4.0 | 0.00 | 0.00 | 0.00 | 64 | 1017.4 |
| 20260504012904 | 61 | 297 | 2.0 | 4.0 | 0.00 | 0.00 | 0.00 | 64 | 1017.4 |
| 20260504012804 | 61 | 297 | 2.0 | 4.0 | 0.00 | 0.00 | 0.00 | 64 | 1017.4 |
| 20260504012704 | 61 | 297 | 2.0 | 4.0 | 0.00 | 0.00 | 0.00 | 64 | 1017.4 |
| 20260504012604 | 61 | 297 | 2.0 | 4.0 | 0.00 | 0.00 | 0.00 | 64 | 1017.4 |
| 20260504012504 | 61 | 296 | 2.0 | 4.0 | 0.00 | 0.00 | 0.00 | 64 | 1017.5 |
| 20260504012404 | 61 | 296 | 2.0 | 4.0 | 0.00 | 0.00 | 0.00 | 64 | 1017.4 |
| 20260504012304 | 61 | 296 | 2.0 | 4.0 | 0.00 | 0.00 | 0.00 | 64 | 1017.4 |
| 20260504012204 | 61 | 296 | 2.0 | 4.0 | 0.00 | 0.00 | 0.00 | 64 | 1017.4 |
| 20260504012104 | 61 | 296 | 2.0 | 4.0 | 0.00 | 0.00 | 0.00 | 64 | 1017.4 |
| 20260504012007 | 61 | 297 | 2.0 | 4.0 | 0.00 | 0.00 | 0.00 | 64 | 1017.4 |
| 20260504011909 | 61 | 299 | 2.0 | 4.0 | 0.00 | 0.00 | 0.00 | 64 | 1017.4 |
| 20260504011805 | 61 | 299 | 2.0 | 3.0 | 0.00 | 0.00 | 0.00 | 64 | 1017.4 |
| 20260504011707 | 61 | 298 | 2.0 | 3.0 | 0.00 | 0.00 | 0.00 | 64 | 1017.4 |
| 20260504011604 | 61 | 298 | 2.0 | 3.0 | 0.00 | 0.00 | 0.00 | 64 | 1017.4 |
| 20260504011505 | 61 | 298 | 2.0 | 4.0 | 0.00 | 0.00 | 0.00 | 64 | 1017.4 |
| 20260504011404 | 61 | 298 | 2.0 | 4.0 | 0.00 | 0.00 | 0.00 | 64 | 1017.5 |
| 20260504011304 | 61 | 298 | 2.0 | 4.0 | 0.00 | 0.00 | 0.00 | 64 | 1017.5 |
| 20260504011204 | 61 | 297 | 2.0 | 4.0 | 0.00 | 0.00 | 0.00 | 64 | 1017.4 |
| 20260504011104 | 61 | 298 | 2.0 | 4.0 | 0.00 | 0.00 | 0.00 | 64 | 1017.4 |
| 20260504011004 | 61 | 299 | 2.0 | 4.0 | 0.00 | 0.00 | 0.00 | 64 | 1017.4 |
| 20260504010904 | 61 | 300 | 2.0 | 4.0 | 0.00 | 0.00 | 0.00 | 64 | 1017.4 |
| 20260504010804 | 61 | 301 | 2.0 | 4.0 | 0.00 | 0.00 | 0.00 | 64 | 1017.4 |
| 20260504010704 | 61 | 303 | 2.0 | 4.0 | 0.00 | 0.00 | 0.00 | 65 | 1017.4 |
| 20260504010604 | 61 | 304 | 2.0 | 4.0 | 0.00 | 0.00 | 0.00 | 65 | 1017.5 |
| 20260504010505 | 61 | 305 | 2.0 | 4.0 | 0.00 | 0.00 | 0.00 | 65 | 1017.5 |
| 20260504010404 | 61 | 307 | 2.0 | 4.0 | 0.00 | 0.00 | 0.00 | 65 | 1017.4 |
| 20260504010307 | 61 | 308 | 2.0 | 4.0 | 0.00 | 0.00 | 0.00 | 65 | 1017.4 |
| 20260504010207 | 61 | 309 | 2.0 | 4.0 | 0.00 | 0.00 | 0.00 | 65 | 1017.4 |
| 20260504010105 | 61 | 310 | 2.0 | 4.0 | 0.00 | 0.00 | 0.00 | 66 | 1017.4 |
| 20260504010004 | 61 | 312 | 2.0 | 4.0 | 0.00 | 0.00 | 0.00 | 66 | 1017.4 |
| 20260504005904 | 61 | 312 | 2.0 | 4.0 | 0.00 | 0.00 | 0.00 | 66 | 1017.4 |
| 20260504005804 | 61 | 312 | 2.0 | 4.0 | 0.00 | 0.00 | 0.00 | 66 | 1017.4 |
| 20260504005708 | 61 | 313 | 2.0 | 5.0 | 0.00 | 0.00 | 0.00 | 67 | 1017.4 |
| 20260504005604 | 61 | 313 | 2.0 | 5.0 | 0.00 | 0.00 | 0.00 | 67 | 1017.5 |
| 20260504005504 | 61 | 313 | 2.0 | 5.0 | 0.00 | 0.00 | 0.00 | 67 | 1017.5 |
| 20260504005404 | 61 | 313 | 2.0 | 5.0 | 0.00 | 0.00 | 0.00 | 67 | 1017.6 |
| 20260504005305 | 61 | 313 | 2.0 | 5.0 | 0.00 | 0.00 | 0.00 | 67 | 1017.6 |
| 20260504005204 | 61 | 314 | 2.0 | 5.0 | 0.00 | 0.00 | 0.00 | 67 | 1017.6 |
| 20260504005104 | 61 | 316 | 2.0 | 5.0 | 0.00 | 0.00 | 0.00 | 67 | 1017.5 |
| 20260504005004 | 61 | 317 | 2.0 | 5.0 | 0.00 | 0.00 | 0.00 | 67 | 1017.5 |
| 20260504004904 | 61 | 316 | 2.0 | 5.0 | 0.00 | 0.00 | 0.00 | 67 | 1017.5 |
| 20260504004806 | 61 | 317 | 1.0 | 5.0 | 0.00 | 0.00 | 0.00 | 67 | 1017.6 |
| 20260504004708 | 61 | 316 | 1.0 | 4.0 | 0.00 | 0.00 | 0.00 | 67 | 1017.6 |
| 20260504004604 | 61 | 316 | 1.0 | 4.0 | 0.00 | 0.00 | 0.00 | 67 | 1017.5 |
| 20260504004504 | 61 | 316 | 1.0 | 4.0 | 0.00 | 0.00 | 0.00 | 67 | 1017.6 |
| 20260504004404 | 61 | 317 | 1.0 | 4.0 | 0.00 | 0.00 | 0.00 | 67 | 1017.6 |
| 20260504004305 | 61 | 317 | 2.0 | 4.0 | 0.00 | 0.00 | 0.00 | 67 | 1017.5 |
| 20260504004204 | 61 | 315 | 2.0 | 4.0 | 0.00 | 0.00 | 0.00 | 67 | 1017.5 |
| 20260504004104 | 61 | 312 | 2.0 | 4.0 | 0.00 | 0.00 | 0.00 | 67 | 1017.6 |
| 20260504004004 | 61 | 307 | 2.0 | 3.0 | 0.00 | 0.00 | 0.00 | 68 | 1017.6 |
| 20260504003904 | 61 | 304 | 2.0 | 3.0 | 0.00 | 0.00 | 0.00 | 68 | 1017.6 |
| 20260504003804 | 61 | 304 | 2.0 | 3.0 | 0.00 | 0.00 | 0.00 | 68 | 1017.6 |
| 20260504003704 | 61 | 305 | 2.0 | 3.0 | 0.00 | 0.00 | 0.00 | 68 | 1017.6 |
| 20260504003604 | 61 | 305 | 2.0 | 4.0 | 0.00 | 0.00 | 0.00 | 68 | 1017.5 |
| 20260504003504 | 61 | 308 | 2.0 | 4.0 | 0.00 | 0.00 | 0.00 | 69 | 1017.5 |
| 20260504003404 | 61 | 308 | 2.0 | 4.0 | 0.00 | 0.00 | 0.00 | 69 | 1017.5 |
| 20260504003309 | 61 | 309 | 2.0 | 4.0 | 0.00 | 0.00 | 0.00 | 69 | 1017.6 |
| 20260504003206 | 61 | 310 | 2.0 | 4.0 | 0.00 | 0.00 | 0.00 | 69 | 1017.6 |
| 20260504003104 | 61 | 312 | 2.0 | 4.0 | 0.00 | 0.00 | 0.00 | 69 | 1017.5 |
| 20260504003004 | 61 | 312 | 2.0 | 4.0 | 0.00 | 0.00 | 0.00 | 69 | 1017.5 |
| 20260504002904 | 61 | 314 | 2.0 | 4.0 | 0.00 | 0.00 | 0.00 | 69 | 1017.5 |
| 20260504002804 | 61 | 316 | 2.0 | 4.0 | 0.00 | 0.00 | 0.00 | 69 | 1017.6 |
| 20260504002704 | 61 | 315 | 2.0 | 4.0 | 0.00 | 0.00 | 0.00 | 69 | 1017.6 |
| 20260504002604 | 61 | 318 | 2.0 | 4.0 | 0.00 | 0.00 | 0.00 | 69 | 1017.6 |
| 20260504002504 | 61 | 319 | 2.0 | 4.0 | 0.00 | 0.00 | 0.00 | 69 | 1017.5 |
| 20260504002404 | 61 | 319 | 2.0 | 6.0 | 0.00 | 0.00 | 0.00 | 69 | 1017.5 |
| 20260504002304 | 61 | 321 | 2.0 | 6.0 | 0.00 | 0.00 | 0.00 | 69 | 1017.5 |
| 20260504002204 | 61 | 321 | 2.0 | 6.0 | 0.00 | 0.00 | 0.00 | 69 | 1017.5 |
| 20260504002104 | 61 | 321 | 2.0 | 6.0 | 0.00 | 0.00 | 0.00 | 70 | 1017.5 |
| 20260504002004 | 61 | 324 | 2.0 | 6.0 | 0.00 | 0.00 | 0.00 | 70 | 1017.6 |
| 20260504001904 | 61 | 326 | 2.0 | 6.0 | 0.00 | 0.00 | 0.00 | 70 | 1017.6 |
| 20260504001805 | 61 | 327 | 2.0 | 6.0 | 0.00 | 0.00 | 0.00 | 70 | 1017.5 |
| 20260504001705 | 61 | 331 | 2.0 | 6.0 | 0.00 | 0.00 | 0.00 | 70 | 1017.5 |
| 20260504001604 | 61 | 332 | 2.0 | 6.0 | 0.00 | 0.00 | 0.00 | 70 | 1017.5 |
| 20260504001504 | 61 | 331 | 3.0 | 6.0 | 0.00 | 0.00 | 0.00 | 70 | 1017.5 |
| 20260504001404 | 61 | 332 | 3.0 | 4.0 | 0.00 | 0.00 | 0.00 | 70 | 1017.4 |
| 20260504001304 | 61 | 332 | 3.0 | 4.0 | 0.00 | 0.00 | 0.00 | 70 | 1017.4 |
| 20260504001204 | 61 | 330 | 3.0 | 4.0 | 0.00 | 0.00 | 0.00 | 70 | 1017.5 |
| 20260504001104 | 61 | 329 | 3.0 | 4.0 | 0.00 | 0.00 | 0.00 | 70 | 1017.5 |
| 20260504001004 | 61 | 328 | 3.0 | 4.0 | 0.00 | 0.00 | 0.00 | 70 | 1017.5 |
| 20260504000904 | 61 | 328 | 3.0 | 4.0 | 0.00 | 0.00 | 0.00 | 70 | 1017.6 |
| 20260504000804 | 61 | 327 | 3.0 | 4.0 | 0.00 | 0.00 | 0.00 | 70 | 1017.6 |
| 20260504000704 | 61 | 326 | 3.0 | 4.0 | 0.00 | 0.00 | 0.00 | 70 | 1017.6 |
| 20260504000604 | 61 | 323 | 3.0 | 4.0 | 0.00 | 0.00 | 0.00 | 71 | 1017.6 |
| 20260504000505 | 61 | 322 | 3.0 | 4.0 | 0.00 | 0.00 | 0.00 | 71 | 1017.6 |
| 20260504000405 | 61 | 322 | 3.0 | 4.0 | 0.00 | 0.00 | 0.00 | 70 | 1017.6 |
| 20260504000305 | 61 | 321 | 3.0 | 5.0 | 0.00 | 0.00 | 0.00 | 71 | 1017.6 |
| 20260504000205 | 61 | 321 | 3.0 | 5.0 | 0.00 | 0.00 | 0.00 | 71 | 1017.6 |
| 20260504000106 | 61 | 322 | 3.0 | 5.0 | 0.00 | 0.00 | 0.00 | 72 | 1017.6 |
| 20260504000005 | 61 | 323 | 2.0 | 5.0 | 0.00 | 0.00 | 0.00 | 72 | 1017.5 |
| 20260503235904 | 61 | 322 | 2.0 | 5.0 | 0.00 | 0.00 | 0.00 | 72 | 1017.6 |
| 20260503235804 | 61 | 321 | 2.0 | 5.0 | 0.00 | 0.00 | 0.00 | 72 | 1017.6 |
| 20260503235704 | 61 | 318 | 2.0 | 5.0 | 0.00 | 0.00 | 0.00 | 73 | 1017.5 |
| 20260503235604 | 61 | 316 | 2.0 | 5.0 | 0.00 | 0.00 | 0.00 | 73 | 1017.6 |
| 20260503235505 | 61 | 314 | 2.0 | 5.0 | 0.00 | 0.00 | 0.00 | 73 | 1017.6 |
| 20260503235405 | 61 | 312 | 2.0 | 5.0 | 0.00 | 0.00 | 0.00 | 73 | 1017.6 |
| 20260503235304 | 61 | 311 | 3.0 | 5.0 | 0.00 | 0.00 | 0.00 | 73 | 1017.6 |
| 20260503235204 | 61 | 312 | 3.0 | 5.0 | 0.00 | 0.00 | 0.00 | 73 | 1017.6 |
| 20260503235104 | 61 | 309 | 3.0 | 5.0 | 0.00 | 0.00 | 0.00 | 73 | 1017.7 |
| 20260503235005 | 61 | 306 | 3.0 | 4.0 | 0.00 | 0.00 | 0.00 | 73 | 1017.7 |
| 20260503234904 | 61 | 305 | 3.0 | 4.0 | 0.00 | 0.00 | 0.00 | 73 | 1017.6 |
| 20260503234804 | 61 | 306 | 3.0 | 5.0 | 0.00 | 0.00 | 0.00 | 73 | 1017.6 |
| 20260503234705 | 61 | 309 | 3.0 | 7.0 | 0.00 | 0.00 | 0.00 | 73 | 1017.7 |
| 20260503234608 | 61 | 313 | 4.0 | 8.0 | 0.00 | 0.00 | 0.00 | 73 | 1017.7 |
| 20260503234505 | 61 | 315 | 4.0 | 8.0 | 0.00 | 0.00 | 0.00 | 73 | 1017.7 |
| 20260503234304 | 61 | 317 | 4.0 | 8.0 | 0.00 | 0.00 | 0.00 | 73 | 1017.7 |
| 20260503234204 | 61 | 316 | 4.0 | 8.0 | 0.00 | 0.00 | 0.00 | 73 | 1017.7 |
| 20260503234104 | 61 | 317 | 4.0 | 8.0 | 0.00 | 0.00 | 0.00 | 73 | 1017.8 |
| 20260503234005 | 61 | 317 | 3.0 | 8.0 | 0.00 | 0.00 | 0.00 | 73 | 1017.8 |
| 20260503233904 | 61 | 317 | 3.0 | 8.0 | 0.00 | 0.00 | 0.00 | 73 | 1017.8 |
| 20260503233804 | 61 | 316 | 3.0 | 8.0 | 0.00 | 0.00 | 0.00 | 73 | 1017.7 |
| 20260503233704 | 61 | 316 | 3.0 | 8.0 | 0.00 | 0.00 | 0.00 | 73 | 1017.7 |
| 20260503233604 | 61 | 314 | 3.0 | 6.0 | 0.00 | 0.00 | 0.00 | 73 | 1017.8 |
| 20260503233504 | 61 | 314 | 3.0 | 6.0 | 0.00 | 0.00 | 0.00 | 73 | 1017.8 |
| 20260503233404 | 61 | 314 | 3.0 | 6.0 | 0.00 | 0.00 | 0.00 | 74 | 1017.8 |
| 20260503233307 | 61 | 314 | 3.0 | 6.0 | 0.00 | 0.00 | 0.00 | 74 | 1017.9 |
| 20260503233209 | 61 | 313 | 3.0 | 6.0 | 0.00 | 0.00 | 0.00 | 74 | 1017.9 |
| 20260503233105 | 61 | 311 | 2.0 | 5.0 | 0.00 | 0.00 | 0.00 | 74 | 1017.9 |
| 20260503232904 | 61 | 307 | 2.0 | 5.0 | 0.00 | 0.00 | 0.00 | 74 | 1017.9 |
| 20260503232805 | 61 | 307 | 2.0 | 5.0 | 0.00 | 0.00 | 0.00 | 74 | 1018.0 |
| 20260503232604 | 61 | 306 | 2.0 | 5.0 | 0.00 | 0.00 | 0.00 | 74 | 1017.9 |
| 20260503232504 | 61 | 305 | 2.0 | 6.0 | 0.00 | 0.00 | 0.00 | 74 | 1018.1 |
| 20260503232404 | 61 | 302 | 3.0 | 6.0 | 0.00 | 0.00 | 0.00 | 74 | 1018.1 |
| 20260503232305 | 61 | 301 | 3.0 | 6.0 | 0.00 | 0.00 | 0.00 | 74 | 1017.9 |
| 20260503232205 | 61 | 300 | 3.0 | 6.0 | 0.00 | 0.00 | 0.00 | 74 | 1017.9 |
| 20260503232104 | 61 | 300 | 3.0 | 6.0 | 0.00 | 0.00 | 0.00 | 74 | 1018.0 |
| 20260503232004 | 61 | 302 | 3.0 | 6.0 | 0.00 | 0.00 | 0.00 | 74 | 1018.0 |
| 20260503231904 | 61 | 305 | 3.0 | 6.0 | 0.00 | 0.00 | 0.00 | 74 | 1018.0 |
| 20260503231804 | 61 | 303 | 3.0 | 6.0 | 0.00 | 0.00 | 0.00 | 74 | 1018.0 |
| 20260503231704 | 61 | 304 | 3.0 | 6.0 | 0.00 | 0.00 | 0.00 | 74 | 1018.0 |
| 20260503231604 | 61 | 306 | 3.0 | 6.0 | 0.00 | 0.00 | 0.00 | 74 | 1018.0 |
| 20260503230905 | 61 | 316 | 3.0 | 7.0 | 0.00 | 0.00 | 0.00 | 74 | 1018.0 |
| 20260503230805 | 61 | 318 | 3.0 | 7.0 | 0.00 | 0.00 | 0.00 | 75 | 1018.1 |
| 20260503230705 | 61 | 321 | 3.0 | 7.0 | 0.00 | 0.00 | 0.00 | 75 | 1018.0 |
| 20260503230605 | 61 | 321 | 3.0 | 7.0 | 0.00 | 0.00 | 0.00 | 75 | 1018.0 |
| 20260503230504 | 61 | 321 | 3.0 | 7.0 | 0.00 | 0.00 | 0.00 | 75 | 1018.0 |
| 20260503230405 | 61 | 322 | 2.0 | 5.0 | 0.00 | 0.00 | 0.00 | 76 | 1018.1 |
| 20260503230308 | 61 | 323 | 2.0 | 5.0 | 0.00 | 0.00 | 0.00 | 75 | 1018.1 |
| 20260503230206 | 61 | 323 | 2.0 | 5.0 | 0.00 | 0.00 | 0.00 | 76 | 1018.1 |
| 20260503230105 | 61 | 324 | 2.0 | 5.0 | 0.00 | 0.00 | 0.00 | 75 | 1018.1 |
| 20260503230006 | 61 | 324 | 2.0 | 5.0 | 0.00 | 0.00 | 0.00 | 75 | 1018.2 |
| 20260503225905 | 61 | 324 | 2.0 | 5.0 | 0.00 | 0.00 | 0.00 | 75 | 1018.2 |
| 20260503225808 | 61 | 322 | 2.0 | 5.0 | 0.00 | 0.00 | 0.00 | 75 | 1018.2 |
| 20260503225705 | 61 | 317 | 2.0 | 5.0 | 0.00 | 0.00 | 0.00 | 75 | 1018.2 |
| 20260503225604 | 61 | 317 | 2.0 | 5.0 | 0.00 | 0.00 | 0.00 | 75 | 1018.2 |
| 20260503225505 | 61 | 318 | 2.0 | 5.0 | 0.00 | 0.00 | 0.00 | 75 | 1018.2 |
| 20260503225404 | 61 | 321 | 2.0 | 5.0 | 0.00 | 0.00 | 0.00 | 75 | 1018.2 |
| 20260503225305 | 61 | 324 | 2.0 | 5.0 | 0.00 | 0.00 | 0.00 | 75 | 1018.2 |
| 20260503225205 | 61 | 330 | 2.0 | 5.0 | 0.00 | 0.00 | 0.00 | 75 | 1018.2 |
| 20260503225105 | 62 | 334 | 2.0 | 5.0 | 0.00 | 0.00 | 0.00 | 74 | 1018.2 |
| 20260503225005 | 61 | 334 | 3.0 | 5.0 | 0.00 | 0.00 | 0.00 | 74 | 1018.2 |
| 20260503224905 | 61 | 334 | 3.0 | 5.0 | 0.00 | 0.00 | 0.00 | 74 | 1018.2 |
| 20260503224806 | 61 | 339 | 3.0 | 5.0 | 0.00 | 0.00 | 0.00 | 74 | 1018.2 |
| 20260503224707 | 61 | 343 | 3.0 | 5.0 | 0.00 | 0.00 | 0.00 | 74 | 1018.2 |
| 20260503224606 | 61 | 341 | 3.0 | 5.0 | 0.00 | 0.00 | 0.00 | 75 | 1018.2 |
| 20260503224508 | 61 | 344 | 3.0 | 5.0 | 0.00 | 0.00 | 0.00 | 75 | 1018.2 |
| 20260503224405 | 61 | 341 | 4.0 | 5.0 | 0.00 | 0.00 | 0.00 | 75 | 1018.2 |
| 20260503224305 | 61 | 339 | 4.0 | 6.0 | 0.00 | 0.00 | 0.00 | 75 | 1018.2 |
| 20260503224204 | 61 | 336 | 4.0 | 6.0 | 0.00 | 0.00 | 0.00 | 75 | 1018.3 |
| 20260503224105 | 61 | 332 | 4.0 | 6.0 | 0.00 | 0.00 | 0.00 | 75 | 1018.3 |
| 20260503224005 | 61 | 331 | 4.0 | 6.0 | 0.00 | 0.00 | 0.00 | 75 | 1018.3 |
| 20260503223905 | 61 | 333 | 4.0 | 6.0 | 0.00 | 0.00 | 0.00 | 75 | 1018.3 |
| 20260503223804 | 61 | 333 | 3.0 | 6.0 | 0.00 | 0.00 | 0.00 | 75 | 1018.3 |
| 20260503223705 | 61 | 335 | 3.0 | 6.0 | 0.00 | 0.00 | 0.00 | 76 | 1018.3 |
| 20260503223605 | 61 | 338 | 3.0 | 6.0 | 0.00 | 0.00 | 0.00 | 76 | 1018.3 |
| 20260503223509 | 61 | 338 | 3.0 | 6.0 | 0.00 | 0.00 | 0.00 | 76 | 1018.3 |
| 20260503223405 | 61 | 341 | 3.0 | 6.0 | 0.00 | 0.00 | 0.00 | 76 | 1018.2 |
| 20260503223307 | 61 | 343 | 3.0 | 6.0 | 0.00 | 0.00 | 0.00 | 76 | 1018.2 |
| 20260503223204 | 61 | 346 | 3.0 | 6.0 | 0.00 | 0.00 | 0.00 | 76 | 1018.2 |
| 20260503223108 | 61 | 355 | 3.0 | 6.0 | 0.00 | 0.00 | 0.00 | 76 | 1018.2 |
| 20260503223005 | 61 | 4 | 3.0 | 6.0 | 0.00 | 0.00 | 0.00 | 76 | 1018.2 |
| 20260503222904 | 61 | 9 | 3.0 | 6.0 | 0.00 | 0.00 | 0.00 | 76 | 1018.2 |
| 20260503222805 | 61 | 13 | 3.0 | 6.0 | 0.00 | 0.00 | 0.00 | 76 | 1018.2 |
| 20260503222705 | 61 | 15 | 3.0 | 5.0 | 0.00 | 0.00 | 0.00 | 76 | 1018.2 |
| 20260503222605 | 61 | 17 | 4.0 | 5.0 | 0.00 | 0.00 | 0.00 | 76 | 1018.3 |
| 20260503222504 | 61 | 10 | 4.0 | 5.0 | 0.00 | 0.00 | 0.00 | 76 | 1018.3 |
| 20260503222404 | 61 | 4 | 4.0 | 6.0 | 0.00 | 0.00 | 0.00 | 76 | 1018.3 |
| 20260503222305 | 61 | 360 | 4.0 | 6.0 | 0.00 | 0.00 | 0.00 | 77 | 1018.3 |
| 20260503222205 | 61 | 351 | 4.0 | 6.0 | 0.00 | 0.00 | 0.00 | 77 | 1018.3 |
| 20260503222104 | 61 | 343 | 5.0 | 6.0 | 0.00 | 0.00 | 0.00 | 77 | 1018.2 |
| 20260503222005 | 61 | 333 | 5.0 | 7.0 | 0.00 | 0.00 | 0.00 | 77 | 1018.2 |
| 20260503221904 | 61 | 328 | 5.0 | 7.0 | 0.00 | 0.00 | 0.00 | 77 | 1018.3 |
| 20260503221806 | 61 | 322 | 6.0 | 9.0 | 0.00 | 0.00 | 0.00 | 77 | 1018.2 |
| 20260503221705 | 61 | 317 | 6.0 | 9.0 | 0.00 | 0.00 | 0.00 | 77 | 1018.2 |
| 20260503221605 | 61 | 315 | 6.0 | 10.0 | 0.00 | 0.00 | 0.00 | 76 | 1018.2 |
| 20260503221511 | 61 | 316 | 6.0 | 10.0 | 0.00 | 0.00 | 0.00 | 77 | 1018.2 |
| 20260503221404 | 61 | 315 | 6.0 | 10.0 | 0.00 | 0.00 | 0.00 | 77 | 1018.2 |
| 20260503221304 | 61 | 315 | 6.0 | 10.0 | 0.00 | 0.00 | 0.00 | 77 | 1018.2 |
| 20260503221204 | 61 | 316 | 6.0 | 10.0 | 0.00 | 0.00 | 0.00 | 77 | 1018.2 |
| 20260503221104 | 61 | 315 | 6.0 | 10.0 | 0.00 | 0.00 | 0.00 | 77 | 1018.2 |
| 20260503221005 | 61 | 314 | 6.0 | 10.0 | 0.00 | 0.00 | 0.00 | 77 | 1018.2 |
| 20260503220904 | 61 | 313 | 6.0 | 10.0 | 0.00 | 0.00 | 0.00 | 77 | 1018.2 |
| 20260503220804 | 61 | 313 | 5.0 | 10.0 | 0.00 | 0.00 | 0.00 | 77 | 1018.2 |
| 20260503220704 | 61 | 313 | 5.0 | 10.0 | 0.00 | 0.00 | 0.00 | 77 | 1018.2 |
| 20260503220605 | 61 | 312 | 5.0 | 10.0 | 0.00 | 0.00 | 0.00 | 76 | 1018.2 |
| 20260503220504 | 61 | 312 | 4.0 | 10.0 | 0.00 | 0.00 | 0.00 | 76 | 1018.1 |
| 20260503220405 | 62 | 312 | 4.0 | 10.0 | 0.00 | 0.00 | 0.00 | 76 | 1018.1 |
| 20260503220306 | 61 | 311 | 4.0 | 10.0 | 0.00 | 0.00 | 0.00 | 76 | 1018.2 |
| 20260503220204 | 62 | 312 | 4.0 | 10.0 | 0.00 | 0.00 | 0.00 | 76 | 1018.2 |
| 20260503220104 | 62 | 312 | 4.0 | 10.0 | 0.00 | 0.00 | 0.00 | 76 | 1018.2 |
| 20260503220035 | 62 | 312 | 4.0 | 10.0 | 0.00 | 0.00 | 0.00 | 76 | 1018.2 |
| 20260503215904 | 62 | 313 | 4.0 | 10.0 | 0.00 | 0.00 | 0.00 | 76 | 1018.2 |
| 20260503215804 | 62 | 316 | 4.0 | 10.0 | 0.00 | 0.00 | 0.00 | 76 | 1018.2 |
| 20260503215705 | 62 | 319 | 4.0 | 8.0 | 0.00 | 0.00 | 0.00 | 76 | 1018.2 |
| 20260503215604 | 62 | 320 | 4.0 | 6.0 | 0.00 | 0.00 | 0.00 | 76 | 1018.2 |
| 20260503215505 | 62 | 320 | 4.0 | 7.0 | 0.00 | 0.00 | 0.00 | 76 | 1018.2 |
| 20260503215404 | 62 | 320 | 4.0 | 9.0 | 0.00 | 0.00 | 0.00 | 76 | 1018.2 |
| 20260503215304 | 62 | 321 | 4.0 | 9.0 | 0.00 | 0.00 | 0.00 | 76 | 1018.3 |
| 20260503215204 | 62 | 321 | 4.0 | 9.0 | 0.00 | 0.00 | 0.00 | 76 | 1018.3 |
| 20260503215104 | 62 | 319 | 4.0 | 9.0 | 0.00 | 0.00 | 0.00 | 76 | 1018.3 |
| 20260503215005 | 62 | 318 | 4.0 | 9.0 | 0.00 | 0.00 | 0.00 | 76 | 1018.3 |
| 20260503214904 | 62 | 317 | 4.0 | 9.0 | 0.00 | 0.00 | 0.00 | 76 | 1018.3 |
| 20260503214805 | 62 | 317 | 4.0 | 9.0 | 0.00 | 0.00 | 0.00 | 76 | 1018.3 |
| 20260503214704 | 62 | 317 | 4.0 | 9.0 | 0.00 | 0.00 | 0.00 | 76 | 1018.3 |
| 20260503214606 | 62 | 318 | 4.0 | 9.0 | 0.00 | 0.00 | 0.00 | 76 | 1018.3 |
| 20260503214505 | 62 | 317 | 4.0 | 9.0 | 0.00 | 0.00 | 0.00 | 76 | 1018.3 |
| 20260503214404 | 62 | 317 | 4.0 | 9.0 | 0.00 | 0.00 | 0.00 | 76 | 1018.3 |
| 20260503214304 | 62 | 317 | 4.0 | 9.0 | 0.00 | 0.00 | 0.00 | 76 | 1018.3 |
| 20260503214205 | 62 | 318 | 3.0 | 9.0 | 0.00 | 0.00 | 0.00 | 76 | 1018.3 |
| 20260503214104 | 62 | 321 | 3.0 | 9.0 | 0.00 | 0.00 | 0.00 | 76 | 1018.3 |
| 20260503214010 | 62 | 325 | 3.0 | 9.0 | 0.00 | 0.00 | 0.00 | 76 | 1018.4 |
| 20260503213904 | 62 | 328 | 3.0 | 8.0 | 0.00 | 0.00 | 0.00 | 76 | 1018.4 |
| 20260503213804 | 62 | 332 | 3.0 | 8.0 | 0.00 | 0.00 | 0.00 | 76 | 1018.4 |
| 20260503213705 | 62 | 335 | 3.0 | 8.0 | 0.00 | 0.00 | 0.00 | 76 | 1018.4 |
| 20260503213605 | 62 | 339 | 3.0 | 8.0 | 0.00 | 0.00 | 0.00 | 76 | 1018.4 |
| 20260503213504 | 62 | 344 | 3.0 | 8.0 | 0.00 | 0.00 | 0.00 | 76 | 1018.4 |
| 20260503213404 | 62 | 349 | 3.0 | 8.0 | 0.00 | 0.00 | 0.00 | 76 | 1018.3 |
| 20260503213304 | 62 | 354 | 3.0 | 8.0 | 0.00 | 0.00 | 0.00 | 76 | 1018.3 |
| 20260503213208 | 62 | 360 | 3.0 | 8.0 | 0.00 | 0.00 | 0.00 | 76 | 1018.3 |
| 20260503213106 | 62 | 6 | 3.0 | 7.0 | 0.00 | 0.00 | 0.00 | 76 | 1018.3 |
| 20260503213004 | 62 | 8 | 3.0 | 7.0 | 0.00 | 0.00 | 0.00 | 76 | 1018.3 |
| 20260503212904 | 62 | 12 | 3.0 | 7.0 | 0.00 | 0.00 | 0.00 | 76 | 1018.3 |
| 20260503212804 | 62 | 15 | 3.0 | 7.0 | 0.00 | 0.00 | 0.00 | 75 | 1018.3 |
| 20260503212704 | 62 | 14 | 3.0 | 7.0 | 0.00 | 0.00 | 0.00 | 75 | 1018.3 |
| 20260503212604 | 62 | 11 | 3.0 | 7.0 | 0.00 | 0.00 | 0.00 | 76 | 1018.3 |
| 20260503212504 | 62 | 9 | 3.0 | 7.0 | 0.00 | 0.00 | 0.00 | 76 | 1018.3 |
| 20260503212405 | 62 | 8 | 3.0 | 7.0 | 0.00 | 0.00 | 0.00 | 76 | 1018.3 |
| 20260503212305 | 62 | 2 | 3.0 | 5.0 | 0.00 | 0.00 | 0.00 | 76 | 1018.3 |
| 20260503212204 | 62 | 356 | 3.0 | 5.0 | 0.00 | 0.00 | 0.00 | 76 | 1018.3 |
| 20260503212104 | 62 | 349 | 3.0 | 5.0 | 0.00 | 0.00 | 0.00 | 76 | 1018.2 |
| 20260503212004 | 62 | 343 | 3.0 | 5.0 | 0.00 | 0.00 | 0.00 | 76 | 1018.2 |
| 20260503211904 | 62 | 331 | 3.0 | 7.0 | 0.00 | 0.00 | 0.00 | 76 | 1018.2 |
| 20260503211806 | 62 | 326 | 3.0 | 7.0 | 0.00 | 0.00 | 0.00 | 76 | 1018.2 |
| 20260503211707 | 62 | 324 | 3.0 | 7.0 | 0.00 | 0.00 | 0.00 | 76 | 1018.3 |
| 20260503211605 | 62 | 319 | 3.0 | 7.0 | 0.00 | 0.00 | 0.00 | 76 | 1018.3 |
| 20260503211504 | 62 | 317 | 3.0 | 7.0 | 0.00 | 0.00 | 0.00 | 76 | 1018.3 |
| 20260503211404 | 62 | 316 | 4.0 | 7.0 | 0.00 | 0.00 | 0.00 | 76 | 1018.4 |
| 20260503211304 | 62 | 313 | 4.0 | 7.0 | 0.00 | 0.00 | 0.00 | 76 | 1018.4 |
| 20260503211204 | 62 | 310 | 4.0 | 7.0 | 0.00 | 0.00 | 0.00 | 76 | 1018.4 |
| 20260503211104 | 62 | 306 | 4.0 | 7.0 | 0.00 | 0.00 | 0.00 | 76 | 1018.3 |
| 20260503211004 | 62 | 304 | 4.0 | 7.0 | 0.00 | 0.00 | 0.00 | 76 | 1018.3 |
| 20260503210904 | 62 | 302 | 4.0 | 9.0 | 0.00 | 0.00 | 0.00 | 76 | 1018.3 |
| 20260503210804 | 62 | 300 | 4.0 | 9.0 | 0.00 | 0.00 | 0.00 | 76 | 1018.3 |
| 20260503210704 | 62 | 300 | 4.0 | 9.0 | 0.00 | 0.00 | 0.00 | 76 | 1018.3 |
| 20260503210604 | 62 | 299 | 4.0 | 9.0 | 0.00 | 0.00 | 0.00 | 76 | 1018.4 |
| 20260503210521 | 62 | 299 | 4.0 | 9.0 | 0.00 | 0.00 | 0.00 | 76 | 1018.4 |
| 20260503210404 | 62 | 298 | 4.0 | 9.0 | 0.00 | 0.00 | 0.00 | 76 | 1018.5 |
| 20260503210305 | 62 | 298 | 4.0 | 9.0 | 0.00 | 0.00 | 0.00 | 76 | 1018.4 |
| 20260503210204 | 62 | 297 | 4.0 | 9.0 | 0.00 | 0.00 | 0.00 | 76 | 1018.4 |
| 20260503210106 | 62 | 297 | 4.0 | 9.0 | 0.00 | 0.00 | 0.00 | 76 | 1018.4 |
| 20260503210005 | 62 | 297 | 4.0 | 9.0 | 0.00 | 0.00 | 0.00 | 76 | 1018.4 |
| 20260503205904 | 62 | 297 | 4.0 | 8.0 | 0.00 | 0.00 | 0.00 | 76 | 1018.5 |
| 20260503205804 | 62 | 297 | 4.0 | 8.0 | 0.00 | 0.00 | 0.00 | 76 | 1018.4 |
| 20260503205704 | 62 | 298 | 4.0 | 8.0 | 0.00 | 0.00 | 0.00 | 76 | 1018.4 |
| 20260503205604 | 62 | 298 | 4.0 | 8.0 | 0.00 | 0.00 | 0.00 | 76 | 1018.4 |
| 20260503205504 | 62 | 298 | 4.0 | 8.0 | 0.00 | 0.00 | 0.00 | 76 | 1018.4 |
| 20260503205404 | 62 | 298 | 4.0 | 8.0 | 0.00 | 0.00 | 0.00 | 76 | 1018.4 |
| 20260503205304 | 62 | 299 | 4.0 | 8.0 | 0.00 | 0.00 | 0.00 | 75 | 1018.4 |
| 20260503205204 | 62 | 300 | 4.0 | 8.0 | 0.00 | 0.00 | 0.00 | 75 | 1018.4 |
| 20260503205104 | 62 | 302 | 3.0 | 8.0 | 0.00 | 0.00 | 0.00 | 76 | 1018.4 |
| 20260503205004 | 62 | 303 | 3.0 | 8.0 | 0.00 | 0.00 | 0.00 | 76 | 1018.4 |
| 20260503204904 | 62 | 303 | 3.0 | 8.0 | 0.00 | 0.00 | 0.00 | 75 | 1018.4 |
| 20260503204809 | 62 | 303 | 3.0 | 8.0 | 0.00 | 0.00 | 0.00 | 75 | 1018.4 |
| 20260503204705 | 62 | 302 | 3.0 | 7.0 | 0.00 | 0.00 | 0.00 | 75 | 1018.4 |
| 20260503204606 | 62 | 303 | 3.0 | 7.0 | 0.00 | 0.00 | 0.00 | 75 | 1018.3 |
| 20260503204504 | 62 | 304 | 3.0 | 7.0 | 0.00 | 0.00 | 0.00 | 75 | 1018.3 |
| 20260503204404 | 62 | 301 | 3.0 | 7.0 | 0.00 | 0.00 | 0.00 | 75 | 1018.3 |
| 20260503204304 | 62 | 300 | 3.0 | 7.0 | 0.00 | 0.00 | 0.00 | 75 | 1018.3 |
| 20260503204204 | 62 | 299 | 3.0 | 7.0 | 0.00 | 0.00 | 0.00 | 75 | 1018.3 |
| 20260503204104 | 62 | 297 | 3.0 | 7.0 | 0.00 | 0.00 | 0.00 | 75 | 1018.3 |
| 20260503204004 | 62 | 297 | 3.0 | 7.0 | 0.00 | 0.00 | 0.00 | 75 | 1018.3 |
| 20260503203904 | 62 | 296 | 3.0 | 7.0 | 0.00 | 0.00 | 0.00 | 75 | 1018.3 |
| 20260503203804 | 62 | 298 | 4.0 | 7.0 | 0.00 | 0.00 | 0.00 | 75 | 1018.2 |
| 20260503203704 | 62 | 300 | 4.0 | 7.0 | 0.00 | 0.00 | 0.00 | 74 | 1018.2 |
| 20260503203604 | 62 | 301 | 4.0 | 7.0 | 0.00 | 0.00 | 0.00 | 74 | 1018.2 |
| 20260503203505 | 62 | 303 | 4.0 | 7.0 | 0.00 | 0.00 | 0.00 | 74 | 1018.3 |
| 20260503203404 | 62 | 306 | 4.0 | 7.0 | 0.00 | 0.00 | 0.00 | 74 | 1018.3 |
| 20260503203303 | 62 | 308 | 4.0 | 8.0 | 0.00 | 0.00 | 0.00 | 74 | 1018.2 |
| 20260503203203 | 62 | 309 | 4.0 | 8.0 | 0.00 | 0.00 | 0.00 | 74 | 1018.2 |
| 20260503203104 | 62 | 312 | 4.0 | 8.0 | 0.00 | 0.00 | 0.00 | 75 | 1018.2 |
| 20260503203004 | 62 | 314 | 4.0 | 8.0 | 0.00 | 0.00 | 0.00 | 74 | 1018.2 |
| 20260503202904 | 62 | 317 | 4.0 | 8.0 | 0.00 | 0.00 | 0.00 | 74 | 1018.2 |
| 20260503202808 | 62 | 316 | 4.0 | 8.0 | 0.00 | 0.00 | 0.00 | 74 | 1018.2 |
| 20260503202705 | 62 | 317 | 4.0 | 9.0 | 0.00 | 0.00 | 0.00 | 74 | 1018.2 |
| 20260503202604 | 62 | 316 | 4.0 | 9.0 | 0.00 | 0.00 | 0.00 | 74 | 1018.2 |
| 20260503202505 | 62 | 316 | 4.0 | 9.0 | 0.00 | 0.00 | 0.00 | 74 | 1018.1 |
| 20260503202405 | 62 | 316 | 4.0 | 9.0 | 0.00 | 0.00 | 0.00 | 74 | 1018.1 |
| 20260503202305 | 62 | 315 | 4.0 | 9.0 | 0.00 | 0.00 | 0.00 | 74 | 1018.1 |
| 20260503202205 | 62 | 315 | 4.0 | 9.0 | 0.00 | 0.00 | 0.00 | 75 | 1018.2 |
| 20260503202104 | 62 | 314 | 4.0 | 9.0 | 0.00 | 0.00 | 0.00 | 74 | 1018.2 |
| 20260503202005 | 62 | 312 | 4.0 | 9.0 | 0.00 | 0.00 | 0.00 | 74 | 1018.2 |
| 20260503201904 | 62 | 309 | 4.0 | 9.0 | 0.00 | 0.00 | 0.00 | 74 | 1018.2 |
| 20260503201805 | 62 | 306 | 4.0 | 9.0 | 0.00 | 0.00 | 0.00 | 74 | 1018.2 |
| 20260503201705 | 62 | 303 | 4.0 | 9.0 | 0.00 | 0.00 | 0.00 | 74 | 1018.2 |
| 20260503201607 | 62 | 302 | 4.0 | 9.0 | 0.00 | 0.00 | 0.00 | 74 | 1018.2 |
| 20260503201505 | 62 | 300 | 4.0 | 8.0 | 0.00 | 0.00 | 0.00 | 74 | 1018.2 |
| 20260503201404 | 62 | 299 | 4.0 | 8.0 | 0.00 | 0.00 | 0.00 | 74 | 1018.2 |
| 20260503201304 | 62 | 297 | 3.0 | 8.0 | 0.00 | 0.00 | 0.00 | 74 | 1018.2 |
| 20260503201205 | 62 | 298 | 3.0 | 8.0 | 0.00 | 0.00 | 0.00 | 74 | 1018.3 |
| 20260503201105 | 62 | 296 | 3.0 | 8.0 | 0.00 | 0.00 | 0.00 | 74 | 1018.3 |
| 20260503201005 | 62 | 296 | 3.0 | 8.0 | 0.00 | 0.00 | 0.00 | 74 | 1018.3 |
| 20260503200905 | 62 | 297 | 3.0 | 8.0 | 0.00 | 0.00 | 0.00 | 74 | 1018.3 |
| 20260503200805 | 62 | 298 | 4.0 | 8.0 | 0.00 | 0.00 | 0.00 | 74 | 1018.3 |
| 20260503200705 | 62 | 299 | 4.0 | 8.0 | 0.00 | 0.00 | 0.00 | 74 | 1018.3 |
| 20260503200605 | 62 | 302 | 4.0 | 8.0 | 0.00 | 0.00 | 0.00 | 74 | 1018.2 |
| 20260503200505 | 62 | 305 | 4.0 | 8.0 | 0.00 | 0.00 | 0.00 | 74 | 1018.2 |
| 20260503200405 | 62 | 308 | 4.0 | 8.0 | 0.00 | 0.00 | 0.00 | 73 | 1018.2 |
| 20260503200309 | 62 | 312 | 4.0 | 8.0 | 0.00 | 0.00 | 0.00 | 73 | 1018.2 |
| 20260503200211 | 62 | 312 | 4.0 | 8.0 | 0.00 | 0.00 | 0.00 | 73 | 1018.2 |
| 20260503200106 | 62 | 315 | 4.0 | 8.0 | 0.00 | 0.00 | 0.00 | 73 | 1018.2 |
| 20260503200005 | 62 | 317 | 4.0 | 8.0 | 0.00 | 0.00 | 0.00 | 73 | 1018.2 |
| 20260503195905 | 62 | 318 | 4.0 | 8.0 | 0.00 | 0.00 | 0.00 | 73 | 1018.2 |
| 20260503195805 | 62 | 320 | 4.0 | 8.0 | 0.00 | 0.00 | 0.00 | 73 | 1018.2 |
| 20260503195705 | 62 | 321 | 4.0 | 8.0 | 0.00 | 0.00 | 0.00 | 73 | 1018.2 |
| 20260503195605 | 62 | 322 | 4.0 | 8.0 | 0.00 | 0.00 | 0.00 | 73 | 1018.2 |
| 20260503195505 | 62 | 322 | 4.0 | 8.0 | 0.00 | 0.00 | 0.00 | 73 | 1018.2 |
| 20260503195405 | 62 | 321 | 4.0 | 8.0 | 0.00 | 0.00 | 0.00 | 73 | 1018.3 |
| 20260503195305 | 62 | 322 | 4.0 | 8.0 | 0.00 | 0.00 | 0.00 | 73 | 1018.3 |
| 20260503195204 | 62 | 322 | 4.0 | 8.0 | 0.00 | 0.00 | 0.00 | 73 | 1018.2 |
| 20260503195105 | 62 | 321 | 4.0 | 8.0 | 0.00 | 0.00 | 0.00 | 73 | 1018.2 |
| 20260503195005 | 62 | 319 | 4.0 | 8.0 | 0.00 | 0.00 | 0.00 | 73 | 1018.2 |
| 20260503194905 | 62 | 317 | 4.0 | 8.0 | 0.00 | 0.00 | 0.00 | 73 | 1018.3 |
| 20260503194805 | 62 | 315 | 4.0 | 8.0 | 0.00 | 0.00 | 0.00 | 73 | 1018.3 |
| 20260503194707 | 62 | 314 | 4.0 | 8.0 | 0.00 | 0.00 | 0.00 | 73 | 1018.3 |
| 20260503194604 | 62 | 312 | 4.0 | 8.0 | 0.00 | 0.00 | 0.00 | 73 | 1018.3 |
| 20260503194508 | 62 | 310 | 4.0 | 8.0 | 0.00 | 0.00 | 0.00 | 73 | 1018.3 |
| 20260503194404 | 62 | 310 | 4.0 | 8.0 | 0.00 | 0.00 | 0.00 | 73 | 1018.3 |
| 20260503194204 | 62 | 304 | 4.0 | 8.0 | 0.00 | 0.00 | 0.00 | 73 | 1018.4 |
| 20260503194105 | 62 | 302 | 4.0 | 8.0 | 0.00 | 0.00 | 0.00 | 73 | 1018.4 |
| 20260503194005 | 62 | 301 | 4.0 | 8.0 | 0.00 | 0.00 | 0.00 | 73 | 1018.4 |
| 20260503193904 | 62 | 299 | 4.0 | 8.0 | 0.00 | 0.00 | 0.00 | 73 | 1018.3 |
| 20260503193805 | 62 | 298 | 4.0 | 8.0 | 0.00 | 0.00 | 0.00 | 73 | 1018.3 |
| 20260503193705 | 62 | 297 | 4.0 | 8.0 | 0.00 | 0.00 | 0.00 | 73 | 1018.3 |
| 20260503193604 | 62 | 296 | 4.0 | 8.0 | 0.00 | 0.00 | 0.00 | 72 | 1018.3 |
| 20260503193505 | 62 | 295 | 4.0 | 8.0 | 0.00 | 0.00 | 0.00 | 72 | 1018.3 |
| 20260503193404 | 62 | 294 | 4.0 | 8.0 | 0.00 | 0.00 | 0.00 | 72 | 1018.4 |
| 20260503193306 | 62 | 294 | 4.0 | 8.0 | 0.00 | 0.00 | 0.00 | 72 | 1018.3 |
| 20260503193205 | 62 | 295 | 4.0 | 8.0 | 0.00 | 0.00 | 0.00 | 72 | 1018.3 |
| 20260503193106 | 62 | 295 | 4.0 | 8.0 | 0.00 | 0.00 | 0.00 | 72 | 1018.3 |
| 20260503193005 | 62 | 296 | 4.0 | 8.0 | 0.00 | 0.00 | 0.00 | 72 | 1018.3 |
| 20260503192904 | 62 | 297 | 4.0 | 8.0 | 0.00 | 0.00 | 0.00 | 72 | 1018.3 |
| 20260503192805 | 62 | 297 | 4.0 | 8.0 | 0.00 | 0.00 | 0.00 | 72 | 1018.3 |
| 20260503192704 | 62 | 297 | 4.0 | 8.0 | 0.00 | 0.00 | 0.00 | 72 | 1018.3 |
| 20260503192605 | 63 | 299 | 4.0 | 8.0 | 0.00 | 0.00 | 0.00 | 72 | 1018.3 |
| 20260503192505 | 63 | 303 | 4.0 | 8.0 | 0.00 | 0.00 | 0.00 | 71 | 1018.3 |
| 20260503192411 | 63 | 306 | 3.0 | 8.0 | 0.00 | 0.00 | 0.00 | 71 | 1018.3 |
| 20260503192305 | 63 | 311 | 3.0 | 8.0 | 0.00 | 0.00 | 0.00 | 71 | 1018.3 |
| 20260503192204 | 63 | 313 | 3.0 | 8.0 | 0.00 | 0.00 | 0.00 | 71 | 1018.3 |
| 20260503192104 | 63 | 315 | 3.0 | 8.0 | 0.00 | 0.00 | 0.00 | 71 | 1018.3 |
| 20260503192005 | 63 | 315 | 3.0 | 8.0 | 0.00 | 0.00 | 0.00 | 71 | 1018.3 |
| 20260503191907 | 63 | 320 | 3.0 | 8.0 | 0.00 | 0.00 | 0.00 | 70 | 1018.3 |
| 20260503191807 | 63 | 326 | 2.0 | 8.0 | 0.00 | 0.00 | 0.00 | 70 | 1018.2 |
| 20260503191708 | 63 | 332 | 2.0 | 8.0 | 0.00 | 0.00 | 0.00 | 70 | 1018.2 |
| 20260503191605 | 63 | 334 | 2.0 | 7.0 | 0.00 | 0.00 | 0.00 | 70 | 1018.2 |
| 20260503191505 | 63 | 338 | 2.0 | 7.0 | 0.00 | 0.00 | 0.00 | 70 | 1018.2 |
| 20260503191405 | 63 | 341 | 2.0 | 7.0 | 0.00 | 0.00 | 0.00 | 70 | 1018.2 |
| 20260503191305 | 63 | 342 | 2.0 | 7.0 | 0.00 | 0.00 | 0.00 | 70 | 1018.2 |
| 20260503191207 | 63 | 345 | 3.0 | 7.0 | 0.00 | 0.00 | 0.00 | 70 | 1018.2 |
| 20260503191105 | 63 | 350 | 3.0 | 7.0 | 0.00 | 0.00 | 0.00 | 70 | 1018.2 |
| 20260503191006 | 63 | 354 | 3.0 | 5.0 | 0.00 | 0.00 | 0.00 | 70 | 1018.1 |
| 20260503190905 | 63 | 349 | 3.0 | 5.0 | 0.00 | 0.00 | 0.00 | 70 | 1018.1 |
| 20260503190805 | 63 | 346 | 3.0 | 5.0 | 0.00 | 0.00 | 0.00 | 70 | 1018.1 |
| 20260503190704 | 63 | 343 | 3.0 | 5.0 | 0.00 | 0.00 | 0.00 | 70 | 1018.0 |
| 20260503190605 | 63 | 336 | 3.0 | 5.0 | 0.00 | 0.00 | 0.00 | 70 | 1018.0 |
| 20260503190505 | 63 | 330 | 3.0 | 5.0 | 0.00 | 0.00 | 0.00 | 70 | 1018.1 |
| 20260503190405 | 63 | 327 | 3.0 | 5.0 | 0.00 | 0.00 | 0.00 | 70 | 1018.1 |
| 20260503190305 | 63 | 324 | 3.0 | 5.0 | 0.00 | 0.00 | 0.00 | 70 | 1018.1 |
| 20260503190206 | 63 | 324 | 3.0 | 5.0 | 0.00 | 0.00 | 0.00 | 70 | 1018.0 |
| 20260503190106 | 63 | 321 | 3.0 | 5.0 | 0.00 | 0.00 | 0.00 | 70 | 1018.0 |
| 20260503190005 | 63 | 321 | 2.0 | 5.0 | 0.00 | 0.00 | 0.00 | 70 | 1018.0 |
| 20260503185904 | 63 | 321 | 2.0 | 5.0 | 0.00 | 0.00 | 0.00 | 70 | 1018.0 |
| 20260503185805 | 63 | 319 | 2.0 | 5.0 | 0.00 | 0.00 | 0.00 | 70 | 1018.0 |
| 20260503185704 | 63 | 314 | 2.0 | 5.0 | 0.00 | 0.00 | 0.00 | 70 | 1017.9 |
| 20260503185605 | 63 | 315 | 2.0 | 5.0 | 0.00 | 0.00 | 0.00 | 70 | 1017.9 |
| 20260503185505 | 63 | 317 | 2.0 | 5.0 | 0.00 | 0.00 | 0.00 | 70 | 1018.0 |
| 20260503185404 | 63 | 317 | 2.0 | 5.0 | 0.00 | 0.00 | 0.00 | 70 | 1017.9 |
| 20260503185305 | 63 | 316 | 2.0 | 5.0 | 0.00 | 0.00 | 0.00 | 70 | 1017.9 |
| 20260503185204 | 63 | 313 | 2.0 | 5.0 | 0.00 | 0.00 | 0.00 | 70 | 1018.0 |
| 20260503185104 | 63 | 312 | 2.0 | 4.0 | 0.00 | 0.00 | 0.00 | 70 | 1018.0 |
| 20260503185004 | 63 | 310 | 2.0 | 4.0 | 0.00 | 0.00 | 0.00 | 70 | 1018.0 |
| 20260503184904 | 63 | 304 | 2.0 | 6.0 | 0.00 | 0.00 | 0.00 | 70 | 1017.9 |
| 20260503184805 | 63 | 304 | 2.0 | 6.0 | 0.00 | 0.00 | 0.00 | 70 | 1017.9 |
| 20260503184707 | 63 | 302 | 2.0 | 6.0 | 0.00 | 0.00 | 0.00 | 70 | 1018.0 |
| 20260503184609 | 63 | 302 | 2.0 | 6.0 | 0.00 | 0.00 | 0.00 | 70 | 1018.0 |
| 20260503184507 | 63 | 299 | 2.0 | 6.0 | 0.00 | 0.00 | 0.00 | 70 | 1017.9 |
| 20260503184404 | 63 | 297 | 2.0 | 6.0 | 0.00 | 0.00 | 0.00 | 70 | 1017.9 |
| 20260503184304 | 63 | 296 | 2.0 | 6.0 | 0.00 | 0.00 | 0.00 | 69 | 1017.9 |
| 20260503184204 | 63 | 295 | 2.0 | 6.0 | 0.00 | 0.00 | 0.00 | 70 | 1018.0 |
| 20260503184104 | 63 | 295 | 2.0 | 6.0 | 0.00 | 0.00 | 0.00 | 69 | 1017.8 |
| 20260503184004 | 63 | 294 | 2.0 | 6.0 | 0.00 | 0.00 | 0.00 | 69 | 1017.8 |
| 20260503183904 | 64 | 294 | 2.0 | 5.0 | 0.00 | 0.00 | 0.00 | 69 | 1017.8 |
| 20260503183805 | 64 | 295 | 2.0 | 5.0 | 0.00 | 0.00 | 0.00 | 69 | 1017.8 |
| 20260503183704 | 64 | 297 | 2.0 | 5.0 | 0.00 | 0.00 | 0.00 | 69 | 1017.8 |
| 20260503183604 | 64 | 297 | 2.0 | 5.0 | 0.00 | 0.00 | 0.00 | 69 | 1017.7 |
| 20260503183504 | 64 | 298 | 2.0 | 5.0 | 0.00 | 0.00 | 0.00 | 69 | 1017.7 |
| 20260503183406 | 64 | 299 | 2.0 | 5.0 | 0.00 | 0.00 | 0.00 | 68 | 1017.6 |
| 20260503183308 | 64 | 304 | 2.0 | 5.0 | 0.00 | 0.00 | 0.00 | 68 | 1017.6 |
| 20260503183208 | 64 | 313 | 2.0 | 5.0 | 0.00 | 0.00 | 0.00 | 68 | 1017.6 |
| 20260503183105 | 64 | 325 | 2.0 | 4.0 | 0.00 | 0.00 | 0.00 | 68 | 1017.6 |
| 20260503183005 | 64 | 332 | 2.0 | 4.0 | 0.00 | 0.00 | 0.00 | 68 | 1017.6 |
| 20260503182904 | 64 | 341 | 2.0 | 4.0 | 0.00 | 0.00 | 0.00 | 68 | 1017.6 |
| 20260503182804 | 64 | 351 | 3.0 | 4.0 | 0.00 | 0.00 | 0.00 | 68 | 1017.5 |
| 20260503182704 | 64 | 355 | 3.0 | 4.0 | 0.00 | 0.00 | 0.00 | 68 | 1017.5 |
| 20260503182604 | 64 | 3 | 3.0 | 7.0 | 0.00 | 0.00 | 0.00 | 68 | 1017.4 |
| 20260503182505 | 64 | 4 | 3.0 | 7.0 | 0.00 | 0.00 | 0.00 | 68 | 1017.4 |
| 20260503182404 | 64 | 8 | 3.0 | 7.0 | 0.00 | 0.00 | 0.00 | 68 | 1017.4 |
| 20260503182305 | 64 | 9 | 4.0 | 7.0 | 0.00 | 0.00 | 0.00 | 68 | 1017.3 |
| 20260503182206 | 64 | 5 | 4.0 | 9.0 | 0.00 | 0.00 | 0.00 | 68 | 1017.3 |
| 20260503182104 | 64 | 6 | 4.0 | 9.0 | 0.00 | 0.00 | 0.00 | 68 | 1017.4 |
| 20260503182006 | 64 | 5 | 4.0 | 9.0 | 0.00 | 0.00 | 0.00 | 68 | 1017.4 |
| 20260503181904 | 64 | 4 | 4.0 | 9.0 | 0.00 | 0.00 | 0.00 | 68 | 1017.3 |
| 20260503181805 | 64 | 3 | 4.0 | 9.0 | 0.00 | 0.00 | 0.00 | 68 | 1017.3 |
| 20260503181705 | 64 | 2 | 4.0 | 9.0 | 0.00 | 0.00 | 0.00 | 68 | 1017.3 |
| 20260503181606 | 64 | 5 | 4.0 | 9.0 | 0.00 | 0.00 | 0.00 | 68 | 1017.4 |
| 20260503181505 | 64 | 8 | 4.0 | 9.0 | 0.00 | 0.00 | 0.00 | 68 | 1017.4 |
| 20260503181404 | 64 | 7 | 4.0 | 9.0 | 0.00 | 0.00 | 0.00 | 68 | 1017.4 |
| 20260503181304 | 64 | 8 | 4.0 | 9.0 | 0.00 | 0.00 | 0.00 | 68 | 1017.4 |
| 20260503181205 | 64 | 9 | 4.0 | 8.0 | 0.00 | 0.00 | 0.00 | 68 | 1017.4 |
| 20260503181103 | 64 | 11 | 4.0 | 8.0 | 0.00 | 0.00 | 0.00 | 68 | 1017.4 |
| 20260503181005 | 64 | 11 | 4.0 | 8.0 | 0.00 | 0.00 | 0.00 | 67 | 1017.4 |
| 20260503180904 | 64 | 10 | 3.0 | 8.0 | 0.00 | 0.00 | 0.00 | 67 | 1017.4 |
| 20260503180804 | 64 | 10 | 3.0 | 8.0 | 0.00 | 0.00 | 0.00 | 67 | 1017.3 |
| 20260503180704 | 64 | 10 | 3.0 | 8.0 | 0.00 | 0.00 | 0.00 | 67 | 1017.3 |
| 20260503180604 | 64 | 8 | 3.0 | 7.0 | 0.00 | 0.00 | 0.00 | 66 | 1017.3 |
| 20260503180504 | 64 | 2 | 3.0 | 8.0 | 0.00 | 0.00 | 0.00 | 66 | 1017.3 |
| 20260503180405 | 64 | 1 | 3.0 | 8.0 | 0.00 | 0.00 | 0.00 | 66 | 1017.3 |
| 20260503180304 | 64 | 1 | 3.0 | 8.0 | 0.00 | 0.00 | 0.00 | 66 | 1017.3 |
| 20260503180205 | 64 | 360 | 3.0 | 8.0 | 0.00 | 0.00 | 0.00 | 65 | 1017.3 |
| 20260503180109 | 64 | 359 | 3.0 | 8.0 | 0.00 | 0.00 | 0.00 | 65 | 1017.2 |
| 20260503180004 | 64 | 4 | 3.0 | 8.0 | 0.00 | 0.00 | 0.00 | 65 | 1017.3 |
| 20260503175904 | 64 | 7 | 3.0 | 8.0 | 0.00 | 0.00 | 0.00 | 65 | 1017.3 |
| 20260503175804 | 64 | 11 | 3.0 | 8.0 | 0.00 | 0.00 | 0.00 | 64 | 1017.2 |
| 20260503175704 | 64 | 13 | 4.0 | 8.0 | 0.00 | 0.00 | 0.00 | 64 | 1017.2 |
| 20260503175603 | 64 | 14 | 4.0 | 8.0 | 0.00 | 0.00 | 0.00 | 64 | 1017.2 |
| 20260503175504 | 65 | 22 | 4.0 | 8.0 | 0.00 | 0.00 | 0.00 | 64 | 1017.2 |
| 20260503175404 | 65 | 24 | 4.0 | 8.0 | 0.00 | 0.00 | 0.00 | 63 | 1017.2 |
| 20260503175306 | 65 | 19 | 4.0 | 8.0 | 0.00 | 0.00 | 0.00 | 63 | 1017.2 |
| 20260503175205 | 65 | 16 | 4.0 | 8.0 | 0.00 | 0.00 | 0.00 | 63 | 1017.2 |
| 20260503175105 | 65 | 15 | 4.0 | 9.0 | 0.00 | 0.00 | 0.00 | 63 | 1017.2 |
| 20260503175007 | 65 | 12 | 4.0 | 9.0 | 0.00 | 0.00 | 0.00 | 63 | 1017.2 |
| 20260503174907 | 65 | 12 | 4.0 | 9.0 | 0.00 | 0.00 | 0.00 | 63 | 1017.2 |
| 20260503174812 | 65 | 14 | 4.0 | 9.0 | 0.00 | 0.00 | 0.00 | 63 | 1017.2 |
| 20260503174706 | 65 | 14 | 4.0 | 9.0 | 0.00 | 0.00 | 0.00 | 63 | 1017.1 |
| 20260503174607 | 65 | 13 | 4.0 | 9.0 | 0.00 | 0.00 | 0.00 | 63 | 1017.1 |
| 20260503174505 | 65 | 10 | 4.0 | 9.0 | 0.00 | 0.00 | 0.00 | 63 | 1017.2 |
| 20260503174404 | 65 | 9 | 4.0 | 9.0 | 0.00 | 0.00 | 0.00 | 63 | 1017.2 |
| 20260503174304 | 65 | 12 | 4.0 | 9.0 | 0.00 | 0.00 | 0.00 | 63 | 1017.2 |
| 20260503174205 | 65 | 15 | 4.0 | 9.0 | 0.00 | 0.00 | 0.00 | 63 | 1017.2 |
| 20260503174105 | 65 | 17 | 4.0 | 9.0 | 0.00 | 0.00 | 0.00 | 63 | 1017.2 |
| 20260503174005 | 65 | 12 | 3.0 | 9.0 | 0.00 | 0.00 | 0.00 | 63 | 1017.2 |
| 20260503173805 | 65 | 5 | 3.0 | 8.0 | 0.00 | 0.00 | 0.00 | 63 | 1017.2 |
| 20260503173705 | 65 | 4 | 3.0 | 8.0 | 0.00 | 0.00 | 0.00 | 63 | 1017.2 |
| 20260503173605 | 65 | 5 | 3.0 | 8.0 | 0.00 | 0.00 | 0.00 | 63 | 1017.2 |
| 20260503173505 | 65 | 7 | 3.0 | 8.0 | 0.00 | 0.00 | 0.00 | 63 | 1017.2 |
| 20260503173405 | 65 | 12 | 3.0 | 8.0 | 0.00 | 0.00 | 0.00 | 63 | 1017.2 |
| 20260503173307 | 65 | 13 | 3.0 | 8.0 | 0.00 | 0.00 | 0.00 | 63 | 1017.2 |
| 20260503173205 | 65 | 5 | 3.0 | 8.0 | 0.00 | 0.00 | 0.00 | 63 | 1017.2 |
| 20260503173105 | 65 | 3 | 3.0 | 7.0 | 0.00 | 0.00 | 0.00 | 63 | 1017.2 |
| 20260503173005 | 65 | 7 | 4.0 | 7.0 | 0.00 | 0.00 | 0.00 | 63 | 1017.1 |
| 20260503172905 | 65 | 9 | 4.0 | 7.0 | 0.00 | 0.00 | 0.00 | 63 | 1017.2 |
| 20260503172805 | 65 | 3 | 4.0 | 7.0 | 0.00 | 0.00 | 0.00 | 63 | 1017.2 |
| 20260503172705 | 65 | 357 | 4.0 | 7.0 | 0.00 | 0.00 | 0.00 | 63 | 1017.2 |
| 20260503172604 | 65 | 349 | 4.0 | 8.0 | 0.00 | 0.00 | 0.00 | 63 | 1017.2 |
| 20260503172505 | 65 | 341 | 4.0 | 8.0 | 0.00 | 0.00 | 0.00 | 63 | 1017.1 |
| 20260503172405 | 65 | 338 | 4.0 | 8.0 | 0.00 | 0.00 | 0.00 | 63 | 1017.1 |
| 20260503172305 | 65 | 335 | 4.0 | 8.0 | 0.00 | 0.00 | 0.00 | 63 | 1017.1 |
| 20260503172205 | 65 | 336 | 5.0 | 8.0 | 0.00 | 0.00 | 0.00 | 63 | 1017.1 |
| 20260503172104 | 65 | 332 | 5.0 | 8.0 | 0.00 | 0.00 | 0.00 | 63 | 1017.0 |
| 20260503172005 | 65 | 326 | 5.0 | 11.0 | 0.00 | 0.00 | 0.00 | 63 | 1017.0 |
| 20260503171908 | 65 | 324 | 5.0 | 11.0 | 0.00 | 0.00 | 0.00 | 62 | 1017.0 |
| 20260503171804 | 65 | 323 | 5.0 | 11.0 | 0.00 | 0.00 | 0.00 | 62 | 1017.0 |
| 20260503171707 | 65 | 324 | 5.0 | 11.0 | 0.00 | 0.00 | 0.00 | 62 | 1016.9 |
| 20260503171614 | 65 | 324 | 5.0 | 11.0 | 0.00 | 0.00 | 0.00 | 63 | 1017.0 |
| 20260503171505 | 65 | 326 | 5.0 | 11.0 | 0.00 | 0.00 | 0.00 | 63 | 1017.0 |
| 20260503171405 | 65 | 323 | 5.0 | 11.0 | 0.00 | 0.00 | 0.00 | 63 | 1017.0 |
| 20260503171305 | 65 | 321 | 5.0 | 11.0 | 0.00 | 0.00 | 0.00 | 63 | 1017.0 |
| 20260503171204 | 65 | 321 | 5.0 | 11.0 | 0.00 | 0.00 | 0.00 | 63 | 1016.9 |
| 20260503171104 | 65 | 321 | 5.0 | 11.0 | 0.00 | 0.00 | 0.00 | 62 | 1017.0 |
| 20260503171005 | 65 | 325 | 5.0 | 10.0 | 0.00 | 0.00 | 0.00 | 63 | 1017.0 |
| 20260503170904 | 65 | 325 | 5.0 | 10.0 | 0.00 | 0.00 | 0.00 | 63 | 1017.0 |
| 20260503170804 | 65 | 325 | 5.0 | 10.0 | 0.00 | 0.00 | 0.00 | 63 | 1017.0 |
| 20260503170705 | 65 | 323 | 5.0 | 10.0 | 0.00 | 0.00 | 0.00 | 63 | 1017.1 |
| 20260503170605 | 65 | 321 | 5.0 | 10.0 | 0.00 | 0.00 | 0.00 | 63 | 1017.0 |
| 20260503170504 | 65 | 322 | 5.0 | 10.0 | 0.00 | 0.00 | 0.00 | 63 | 1017.0 |
| 20260503170404 | 65 | 324 | 5.0 | 10.0 | 0.00 | 0.00 | 0.00 | 63 | 1017.1 |
| 20260503170306 | 65 | 321 | 5.0 | 10.0 | 0.00 | 0.00 | 0.00 | 63 | 1017.0 |
| 20260503170206 | 65 | 319 | 5.0 | 12.0 | 0.00 | 0.00 | 0.00 | 64 | 1017.0 |
| 20260503170108 | 65 | 317 | 5.0 | 12.0 | 0.00 | 0.00 | 0.00 | 64 | 1017.0 |
| 20260503160205 | 67 | 338 | 6.0 | 14.0 | 0.00 | 0.00 | 0.00 | 58 | 1017.0 |
| 20260503160105 | 67 | 339 | 6.0 | 14.0 | 0.00 | 0.00 | 0.00 | 58 | 1017.0 |
| 20260503151005 | 69 | 13 | 6.0 | 15.0 | 0.00 | 0.00 | 0.00 | 55 | 1017.2 |
| 20260503150905 | 69 | 12 | 6.0 | 15.0 | 0.00 | 0.00 | 0.00 | 54 | 1017.2 |
| 20260503150805 | 69 | 14 | 6.0 | 15.0 | 0.00 | 0.00 | 0.00 | 54 | 1017.1 |
| 20260503150705 | 69 | 15 | 6.0 | 15.0 | 0.00 | 0.00 | 0.00 | 54 | 1017.1 |
| 20260503150605 | 69 | 12 | 6.0 | 14.0 | 0.00 | 0.00 | 0.00 | 54 | 1017.1 |
| 20260503150505 | 69 | 16 | 6.0 | 14.0 | 0.00 | 0.00 | 0.00 | 54 | 1017.2 |
| 20260503150407 | 70 | 20 | 6.0 | 14.0 | 0.00 | 0.00 | 0.00 | 54 | 1017.2 |
| 20260503150306 | 70 | 21 | 6.0 | 14.0 | 0.00 | 0.00 | 0.00 | 53 | 1017.2 |
| 20260503150205 | 70 | 19 | 6.0 | 13.0 | 0.00 | 0.00 | 0.00 | 53 | 1017.2 |
| 20260503150106 | 70 | 17 | 6.0 | 13.0 | 0.00 | 0.00 | 0.00 | 55 | 1017.2 |
| 20260503140307 | 69 | 326 | 5.0 | 16.0 | 0.00 | 0.00 | 0.00 | 60 | 1017.2 |
| 20260503140205 | 69 | 328 | 5.0 | 16.0 | 0.00 | 0.00 | 0.00 | 59 | 1017.2 |
| 20260503140106 | 70 | 332 | 4.0 | 16.0 | 0.00 | 0.00 | 0.00 | 59 | 1017.2 |
| 20260503131404 | 70 | 2 | 6.0 | 12.0 | 0.00 | 0.00 | 0.00 | 57 | 1017.6 |
| 20260503131304 | 70 | 353 | 6.0 | 12.0 | 0.00 | 0.00 | 0.00 | 57 | 1017.6 |
| 20260503131204 | 70 | 342 | 6.0 | 16.0 | 0.00 | 0.00 | 0.00 | 57 | 1017.6 |
| 20260503131104 | 70 | 341 | 6.0 | 16.0 | 0.00 | 0.00 | 0.00 | 57 | 1017.6 |
| 20260503131004 | 70 | 340 | 6.0 | 16.0 | 0.00 | 0.00 | 0.00 | 58 | 1017.6 |
| 20260503130904 | 70 | 344 | 6.0 | 16.0 | 0.00 | 0.00 | 0.00 | 58 | 1017.6 |
| 20260503130804 | 70 | 336 | 6.0 | 16.0 | 0.00 | 0.00 | 0.00 | 58 | 1017.6 |
| 20260503130704 | 70 | 325 | 6.0 | 16.0 | 0.00 | 0.00 | 0.00 | 57 | 1017.6 |
| 20260503130604 | 70 | 318 | 6.0 | 16.0 | 0.00 | 0.00 | 0.00 | 57 | 1017.6 |
| 20260503130504 | 70 | 321 | 6.0 | 16.0 | 0.00 | 0.00 | 0.00 | 57 | 1017.6 |
| 20260503130404 | 70 | 316 | 6.0 | 16.0 | 0.00 | 0.00 | 0.00 | 57 | 1017.5 |
| 20260503130305 | 70 | 317 | 6.0 | 16.0 | 0.00 | 0.00 | 0.00 | 57 | 1017.5 |
| 20260503130211 | 70 | 315 | 6.0 | 14.0 | 0.00 | 0.00 | 0.00 | 57 | 1017.7 |
| 20260503130106 | 70 | 313 | 6.0 | 14.0 | 0.00 | 0.00 | 0.00 | 57 | 1017.7 |
| 20260503120205 | 68 | 310 | 7.0 | 16.0 | 0.00 | 0.00 | 0.00 | 58 | 1018.1 |
| 20260503120104 | 69 | 309 | 8.0 | 18.0 | 0.00 | 0.00 | 0.00 | 58 | 1018.1 |
| 20260503110805 | 68 | 315 | 8.0 | 20.0 | 0.00 | 0.00 | 0.00 | 56 | 1018.1 |
| 20260503110704 | 68 | 317 | 8.0 | 18.0 | 0.00 | 0.00 | 0.00 | 56 | 1018.0 |
| 20260503110604 | 68 | 319 | 8.0 | 18.0 | 0.00 | 0.00 | 0.00 | 57 | 1018.0 |
| 20260503110504 | 68 | 319 | 8.0 | 18.0 | 0.00 | 0.00 | 0.00 | 56 | 1018.0 |
| 20260503110404 | 68 | 321 | 8.0 | 18.0 | 0.00 | 0.00 | 0.00 | 57 | 1018.0 |
| 20260503110305 | 68 | 320 | 8.0 | 18.0 | 0.00 | 0.00 | 0.00 | 57 | 1018.1 |
| 20260503110206 | 68 | 321 | 8.0 | 18.0 | 0.00 | 0.00 | 0.00 | 57 | 1018.1 |
| 20260503110105 | 68 | 322 | 8.0 | 18.0 | 0.00 | 0.00 | 0.00 | 56 | 1018.1 |
| 20260503100203 | 68 | 321 | 7.0 | 17.0 | 0.00 | 0.00 | 0.00 | 58 | 1018.4 |
| 20260503100104 | 68 | 317 | 7.0 | 17.0 | 0.00 | 0.00 | 0.00 | 58 | 1018.4 |
| 20260503090505 | 67 | 298 | 9.0 | 21.0 | 0.00 | 0.00 | 0.00 | 57 | 1018.5 |
| 20260503090404 | 67 | 298 | 9.0 | 21.0 | 0.00 | 0.00 | 0.00 | 57 | 1018.4 |
| 20260503090305 | 67 | 299 | 9.0 | 21.0 | 0.00 | 0.00 | 0.00 | 57 | 1018.4 |
| 20260503090204 | 67 | 302 | 9.0 | 21.0 | 0.00 | 0.00 | 0.00 | 57 | 1018.4 |
| 20260503081605 | 67 | 304 | 6.0 | 22.0 | 0.00 | 0.00 | 0.00 | 56 | 1018.4 |
| 20260503081504 | 67 | 303 | 6.0 | 22.0 | 0.00 | 0.00 | 0.00 | 55 | 1018.4 |
| 20260503081404 | 67 | 307 | 6.0 | 22.0 | 0.00 | 0.00 | 0.00 | 55 | 1018.4 |
| 20260503081304 | 67 | 307 | 6.0 | 22.0 | 0.00 | 0.00 | 0.00 | 55 | 1018.5 |
| 20260503081205 | 67 | 308 | 6.0 | 22.0 | 0.00 | 0.00 | 0.00 | 55 | 1018.5 |
| 20260503081104 | 67 | 304 | 6.0 | 22.0 | 0.00 | 0.00 | 0.00 | 55 | 1018.5 |
| 20260503081006 | 67 | 306 | 6.0 | 22.0 | 0.00 | 0.00 | 0.00 | 55 | 1018.4 |
| 20260503080904 | 67 | 308 | 6.0 | 22.0 | 0.00 | 0.00 | 0.00 | 55 | 1018.4 |
| 20260503080804 | 67 | 310 | 6.0 | 18.0 | 0.00 | 0.00 | 0.00 | 55 | 1018.5 |
| 20260503080704 | 67 | 314 | 6.0 | 18.0 | 0.00 | 0.00 | 0.00 | 55 | 1018.5 |
| 20260503080604 | 67 | 311 | 5.0 | 18.0 | 0.00 | 0.00 | 0.00 | 55 | 1018.5 |
| 20260503080505 | 67 | 311 | 5.0 | 18.0 | 0.00 | 0.00 | 0.00 | 55 | 1018.4 |
| 20260503080404 | 67 | 305 | 5.0 | 18.0 | 0.00 | 0.00 | 0.00 | 55 | 1018.5 |
| 20260503080305 | 67 | 310 | 5.0 | 18.0 | 0.00 | 0.00 | 0.00 | 55 | 1018.5 |
| 20260503080205 | 67 | 306 | 5.0 | 17.0 | 0.00 | 0.00 | 0.00 | 55 | 1018.5 |
| 20260503080105 | 67 | 307 | 5.0 | 17.0 | 0.00 | 0.00 | 0.00 | 55 | 1018.5 |
| 20260503072904 | 66 | 297 | 6.0 | 14.0 | 0.00 | 0.00 | 0.00 | 55 | 1018.6 |
| 20260503072804 | 66 | 301 | 6.0 | 17.0 | 0.00 | 0.00 | 0.00 | 55 | 1018.6 |
| 20260503072704 | 66 | 301 | 6.0 | 17.0 | 0.00 | 0.00 | 0.00 | 55 | 1018.6 |
| 20260503072604 | 66 | 298 | 6.0 | 17.0 | 0.00 | 0.00 | 0.00 | 55 | 1018.5 |
| 20260503072504 | 66 | 295 | 6.0 | 17.0 | 0.00 | 0.00 | 0.00 | 55 | 1018.5 |
| 20260503072404 | 66 | 293 | 6.0 | 17.0 | 0.00 | 0.00 | 0.00 | 55 | 1018.6 |
| 20260503072305 | 66 | 295 | 6.0 | 17.0 | 0.00 | 0.00 | 0.00 | 55 | 1018.5 |
| 20260503072204 | 66 | 301 | 6.0 | 17.0 | 0.00 | 0.00 | 0.00 | 55 | 1018.5 |
| 20260503072104 | 66 | 304 | 6.0 | 17.0 | 0.00 | 0.00 | 0.00 | 55 | 1018.5 |
| 20260503072004 | 66 | 304 | 6.0 | 17.0 | 0.00 | 0.00 | 0.00 | 55 | 1018.5 |
| 20260503071904 | 66 | 303 | 6.0 | 17.0 | 0.00 | 0.00 | 0.00 | 55 | 1018.5 |
| 20260503071803 | 66 | 303 | 6.0 | 16.0 | 0.00 | 0.00 | 0.00 | 55 | 1018.4 |
| 20260503071705 | 66 | 303 | 6.0 | 16.0 | 0.00 | 0.00 | 0.00 | 55 | 1018.4 |
| 20260503071606 | 66 | 307 | 6.0 | 16.0 | 0.00 | 0.00 | 0.00 | 55 | 1018.4 |
| 20260503071504 | 66 | 302 | 6.0 | 16.0 | 0.00 | 0.00 | 0.00 | 55 | 1018.5 |
| 20260503071404 | 66 | 303 | 6.0 | 16.0 | 0.00 | 0.00 | 0.00 | 55 | 1018.5 |
| 20260503071304 | 66 | 303 | 6.0 | 16.0 | 0.00 | 0.00 | 0.00 | 55 | 1018.6 |
| 20260503071204 | 66 | 301 | 6.0 | 18.0 | 0.00 | 0.00 | 0.00 | 55 | 1018.6 |
| 20260503071103 | 66 | 301 | 6.0 | 18.0 | 0.00 | 0.00 | 0.00 | 55 | 1018.5 |
| 20260503071004 | 66 | 302 | 6.0 | 18.0 | 0.00 | 0.00 | 0.00 | 55 | 1018.5 |
| 20260503070905 | 66 | 303 | 7.0 | 18.0 | 0.00 | 0.00 | 0.00 | 55 | 1018.5 |
| 20260503070805 | 66 | 303 | 7.0 | 18.0 | 0.00 | 0.00 | 0.00 | 55 | 1018.5 |
| 20260503070705 | 66 | 302 | 7.0 | 18.0 | 0.00 | 0.00 | 0.00 | 55 | 1018.5 |
| 20260503070605 | 65 | 300 | 7.0 | 18.0 | 0.00 | 0.00 | 0.00 | 55 | 1018.6 |
| 20260503070505 | 65 | 305 | 7.0 | 18.0 | 0.00 | 0.00 | 0.00 | 55 | 1018.6 |
| 20260503070405 | 65 | 307 | 7.0 | 18.0 | 0.00 | 0.00 | 0.00 | 55 | 1018.6 |
| 20260503070305 | 66 | 304 | 7.0 | 18.0 | 0.00 | 0.00 | 0.00 | 55 | 1018.6 |
| 20260503070206 | 66 | 304 | 7.0 | 17.0 | 0.00 | 0.00 | 0.00 | 55 | 1018.6 |
| 20260503070108 | 65 | 303 | 7.0 | 17.0 | 0.00 | 0.00 | 0.00 | 55 | 1018.5 |
| 20260503060304 | 65 | 304 | 4.0 | 12.0 | 0.00 | 0.00 | 0.00 | 56 | 1018.3 |
| 20260503060206 | 65 | 305 | 4.0 | 12.0 | 0.00 | 0.00 | 0.00 | 56 | 1018.3 |
| 20260503060105 | 65 | 309 | 4.0 | 12.0 | 0.00 | 0.00 | 0.00 | 56 | 1018.3 |
| 20260503055104 | 64 | 297 | 3.0 | 10.0 | 0.00 | 0.00 | 0.00 | 56 | 1018.2 |
| 20260503055005 | 64 | 297 | 3.0 | 10.0 | 0.00 | 0.00 | 0.00 | 56 | 1018.2 |
| 20260503054904 | 64 | 290 | 2.0 | 10.0 | 0.00 | 0.00 | 0.00 | 56 | 1018.2 |
| 20260503054803 | 64 | 273 | 2.0 | 10.0 | 0.00 | 0.00 | 0.00 | 56 | 1018.2 |
| 20260503054704 | 64 | 259 | 2.0 | 10.0 | 0.00 | 0.00 | 0.00 | 56 | 1018.2 |
| 20260503054606 | 64 | 266 | 2.0 | 10.0 | 0.00 | 0.00 | 0.00 | 56 | 1018.2 |
| 20260503054504 | 64 | 267 | 2.0 | 10.0 | 0.00 | 0.00 | 0.00 | 56 | 1018.1 |
| 20260503054404 | 64 | 275 | 2.0 | 10.0 | 0.00 | 0.00 | 0.00 | 56 | 1018.1 |
| 20260503054304 | 64 | 259 | 2.0 | 10.0 | 0.00 | 0.00 | 0.00 | 56 | 1018.1 |
| 20260503054204 | 64 | 248 | 3.0 | 10.0 | 0.00 | 0.00 | 0.00 | 57 | 1018.1 |
| 20260503054004 | 64 | 230 | 3.0 | 10.0 | 0.00 | 0.00 | 0.00 | 57 | 1018.1 |
| 20260503053904 | 64 | 228 | 3.0 | 10.0 | 0.00 | 0.00 | 0.00 | 57 | 1018.1 |
| 20260503053804 | 64 | 238 | 3.0 | 8.0 | 0.00 | 0.00 | 0.00 | 57 | 1018.0 |
| 20260503053704 | 64 | 292 | 3.0 | 9.0 | 0.00 | 0.00 | 0.00 | 57 | 1018.0 |
| 20260503053604 | 64 | 312 | 3.0 | 11.0 | 0.00 | 0.00 | 0.00 | 57 | 1018.0 |
| 20260503053505 | 64 | 316 | 3.0 | 11.0 | 0.00 | 0.00 | 0.00 | 57 | 1018.1 |
| 20260503053404 | 64 | 317 | 3.0 | 11.0 | 0.00 | 0.00 | 0.00 | 57 | 1018.1 |
| 20260503053304 | 64 | 323 | 3.0 | 11.0 | 0.00 | 0.00 | 0.00 | 58 | 1018.1 |
| 20260503053204 | 64 | 313 | 3.0 | 11.0 | 0.00 | 0.00 | 0.00 | 58 | 1018.1 |
| 20260503053105 | 63 | 313 | 3.0 | 11.0 | 0.00 | 0.00 | 0.00 | 58 | 1018.1 |
| 20260503053004 | 63 | 320 | 3.0 | 11.0 | 0.00 | 0.00 | 0.00 | 58 | 1018.2 |
| 20260503052904 | 63 | 323 | 3.0 | 11.0 | 0.00 | 0.00 | 0.00 | 58 | 1018.2 |
| 20260503052804 | 63 | 323 | 3.0 | 11.0 | 0.00 | 0.00 | 0.00 | 58 | 1018.2 |
| 20260503052704 | 63 | 321 | 3.0 | 11.0 | 0.00 | 0.00 | 0.00 | 58 | 1018.3 |
| 20260503052604 | 63 | 319 | 3.0 | 10.0 | 0.00 | 0.00 | 0.00 | 58 | 1018.3 |
| 20260503052505 | 63 | 315 | 3.0 | 10.0 | 0.00 | 0.00 | 0.00 | 58 | 1018.3 |
| 20260503052404 | 63 | 314 | 3.0 | 10.0 | 0.00 | 0.00 | 0.00 | 58 | 1018.3 |
| 20260503052305 | 63 | 309 | 3.0 | 10.0 | 0.00 | 0.00 | 0.00 | 58 | 1018.4 |
| 20260503052204 | 63 | 317 | 3.0 | 10.0 | 0.00 | 0.00 | 0.00 | 59 | 1018.3 |
| 20260503052104 | 63 | 322 | 3.0 | 10.0 | 0.00 | 0.00 | 0.00 | 59 | 1018.3 |
| 20260503052004 | 63 | 320 | 3.0 | 10.0 | 0.00 | 0.00 | 0.00 | 59 | 1018.3 |
| 20260503051904 | 63 | 322 | 3.0 | 10.0 | 0.00 | 0.00 | 0.00 | 59 | 1018.4 |
| 20260503051804 | 63 | 321 | 3.0 | 10.0 | 0.00 | 0.00 | 0.00 | 59 | 1018.4 |
| 20260503051705 | 63 | 332 | 3.0 | 8.0 | 0.00 | 0.00 | 0.00 | 59 | 1018.4 |
| 20260503051605 | 63 | 338 | 3.0 | 8.0 | 0.00 | 0.00 | 0.00 | 59 | 1018.4 |
| 20260503051504 | 62 | 346 | 3.0 | 8.0 | 0.00 | 0.00 | 0.00 | 60 | 1018.4 |
| 20260503051404 | 62 | 360 | 3.0 | 8.0 | 0.00 | 0.00 | 0.00 | 60 | 1018.4 |
| 20260503051304 | 62 | 6 | 3.0 | 8.0 | 0.00 | 0.00 | 0.00 | 60 | 1018.4 |
| 20260503051204 | 62 | 11 | 3.0 | 8.0 | 0.00 | 0.00 | 0.00 | 60 | 1018.3 |
| 20260503051104 | 62 | 7 | 3.0 | 7.0 | 0.00 | 0.00 | 0.00 | 60 | 1018.3 |
| 20260503051004 | 62 | 12 | 3.0 | 7.0 | 0.00 | 0.00 | 0.00 | 60 | 1018.4 |
| 20260503050904 | 62 | 13 | 3.0 | 7.0 | 0.00 | 0.00 | 0.00 | 60 | 1018.4 |
| 20260503050805 | 62 | 14 | 3.0 | 7.0 | 0.00 | 0.00 | 0.00 | 60 | 1018.4 |
| 20260503050704 | 62 | 9 | 3.0 | 7.0 | 0.00 | 0.00 | 0.00 | 61 | 1018.4 |
| 20260503050604 | 62 | 7 | 3.0 | 7.0 | 0.00 | 0.00 | 0.00 | 61 | 1018.3 |
| 20260503050504 | 62 | 354 | 3.0 | 7.0 | 0.00 | 0.00 | 0.00 | 61 | 1018.3 |
| 20260503050404 | 62 | 343 | 3.0 | 7.0 | 0.00 | 0.00 | 0.00 | 61 | 1018.3 |
| 20260503050309 | 62 | 346 | 3.0 | 7.0 | 0.00 | 0.00 | 0.00 | 61 | 1018.3 |
| 20260503050206 | 62 | 350 | 3.0 | 7.0 | 0.00 | 0.00 | 0.00 | 61 | 1018.3 |
| 20260503050106 | 62 | 355 | 3.0 | 7.0 | 0.00 | 0.00 | 0.00 | 61 | 1018.4 |
| 20260503050023 | 62 | 355 | 3.0 | 7.0 | 0.00 | 0.00 | 0.00 | 61 | 1018.4 |
| 20260503045904 | 62 | 356 | 3.0 | 6.0 | 0.00 | 0.00 | 0.00 | 61 | 1018.3 |
| 20260503045804 | 62 | 4 | 3.0 | 6.0 | 0.00 | 0.00 | 0.00 | 61 | 1018.3 |
| 20260503045704 | 62 | 12 | 3.0 | 6.0 | 0.00 | 0.00 | 0.00 | 61 | 1018.3 |
| 20260503045604 | 62 | 10 | 3.0 | 6.0 | 0.00 | 0.00 | 0.00 | 61 | 1018.3 |
| 20260503045504 | 62 | 15 | 3.0 | 6.0 | 0.00 | 0.00 | 0.00 | 61 | 1018.3 |
| 20260503045404 | 61 | 21 | 3.0 | 6.0 | 0.00 | 0.00 | 0.00 | 61 | 1018.4 |
| 20260503045305 | 61 | 23 | 3.0 | 6.0 | 0.00 | 0.00 | 0.00 | 62 | 1018.4 |
| 20260503045204 | 61 | 23 | 3.0 | 6.0 | 0.00 | 0.00 | 0.00 | 62 | 1018.4 |
| 20260503044903 | 61 | 30 | 2.0 | 5.0 | 0.00 | 0.00 | 0.00 | 62 | 1018.4 |
| 20260503044808 | 61 | 30 | 2.0 | 5.0 | 0.00 | 0.00 | 0.00 | 62 | 1018.4 |
| 20260503044704 | 61 | 27 | 2.0 | 5.0 | 0.00 | 0.00 | 0.00 | 62 | 1018.3 |
| 20260503044604 | 61 | 27 | 2.0 | 5.0 | 0.00 | 0.00 | 0.00 | 63 | 1018.3 |
| 20260503044504 | 61 | 27 | 2.0 | 5.0 | 0.00 | 0.00 | 0.00 | 63 | 1018.3 |
| 20260503044404 | 61 | 24 | 2.0 | 5.0 | 0.00 | 0.00 | 0.00 | 63 | 1018.4 |
| 20260503044303 | 61 | 19 | 2.0 | 5.0 | 0.00 | 0.00 | 0.00 | 63 | 1018.3 |
| 20260503044204 | 60 | 13 | 2.0 | 5.0 | 0.00 | 0.00 | 0.00 | 63 | 1018.3 |
| 20260503044103 | 60 | 9 | 2.0 | 5.0 | 0.00 | 0.00 | 0.00 | 63 | 1018.3 |
| 20260503044005 | 60 | 7 | 2.0 | 5.0 | 0.00 | 0.00 | 0.00 | 64 | 1018.3 |
| 20260503043903 | 60 | 8 | 2.0 | 5.0 | 0.00 | 0.00 | 0.00 | 64 | 1018.3 |
| 20260503043803 | 60 | 5 | 2.0 | 5.0 | 0.00 | 0.00 | 0.00 | 64 | 1018.3 |
| 20260503043704 | 60 | 4 | 2.0 | 5.0 | 0.00 | 0.00 | 0.00 | 64 | 1018.3 |
| 20260503043604 | 60 | 4 | 2.0 | 5.0 | 0.00 | 0.00 | 0.00 | 64 | 1018.3 |
| 20260503043504 | 60 | 3 | 2.0 | 5.0 | 0.00 | 0.00 | 0.00 | 64 | 1018.3 |
| 20260503043404 | 60 | 3 | 2.0 | 5.0 | 0.00 | 0.00 | 0.00 | 64 | 1018.3 |
| 20260503043303 | 60 | 2 | 2.0 | 5.0 | 0.00 | 0.00 | 0.00 | 64 | 1018.3 |
| 20260503043204 | 60 | 359 | 2.0 | 4.0 | 0.00 | 0.00 | 0.00 | 64 | 1018.3 |
| 20260503043105 | 60 | 1 | 2.0 | 7.0 | 0.00 | 0.00 | 0.00 | 63 | 1018.3 |
| 20260503043005 | 60 | 360 | 2.0 | 7.0 | 0.00 | 0.00 | 0.00 | 64 | 1018.2 |
| 20260503042904 | 60 | 356 | 2.0 | 7.0 | 0.00 | 0.00 | 0.00 | 64 | 1018.2 |
| 20260503042805 | 60 | 348 | 2.0 | 7.0 | 0.00 | 0.00 | 0.00 | 64 | 1018.2 |
| 20260503042704 | 60 | 341 | 2.0 | 7.0 | 0.00 | 0.00 | 0.00 | 64 | 1018.2 |
| 20260503042604 | 60 | 340 | 2.0 | 7.0 | 0.00 | 0.00 | 0.00 | 64 | 1018.3 |
| 20260503042505 | 60 | 346 | 2.0 | 7.0 | 0.00 | 0.00 | 0.00 | 64 | 1018.2 |
| 20260503042404 | 60 | 351 | 2.0 | 7.0 | 0.00 | 0.00 | 0.00 | 64 | 1018.2 |
| 20260503042305 | 60 | 358 | 2.0 | 7.0 | 0.00 | 0.00 | 0.00 | 64 | 1018.2 |
| 20260503042204 | 60 | 10 | 2.0 | 7.0 | 0.00 | 0.00 | 0.00 | 64 | 1018.2 |
| 20260503042104 | 60 | 10 | 2.0 | 4.0 | 0.00 | 0.00 | 0.00 | 64 | 1018.1 |
| 20260503042007 | 60 | 11 | 2.0 | 4.0 | 0.00 | 0.00 | 0.00 | 64 | 1018.0 |
| 20260503041905 | 60 | 5 | 2.0 | 6.0 | 0.00 | 0.00 | 0.00 | 64 | 1018.0 |
| 20260503041805 | 60 | 14 | 2.0 | 6.0 | 0.00 | 0.00 | 0.00 | 64 | 1018.5 |
| 20260503041705 | 60 | 28 | 2.0 | 6.0 | 0.00 | 0.00 | 0.00 | 64 | 1018.1 |
| 20260503041606 | 60 | 31 | 1.0 | 6.0 | 0.00 | 0.00 | 0.00 | 64 | 1018.1 |
| 20260503041504 | 60 | 28 | 1.0 | 6.0 | 0.00 | 0.00 | 0.00 | 64 | 1018.0 |
| 20260503041405 | 60 | 25 | 1.0 | 6.0 | 0.00 | 0.00 | 0.00 | 64 | 1018.0 |
| 20260503041305 | 60 | 22 | 1.0 | 6.0 | 0.00 | 0.00 | 0.00 | 64 | 1018.1 |
| 20260503041205 | 60 | 19 | 1.0 | 6.0 | 0.00 | 0.00 | 0.00 | 64 | 1018.1 |
| 20260503041104 | 60 | 26 | 1.0 | 6.0 | 0.00 | 0.00 | 0.00 | 64 | 1018.1 |
| 20260503041005 | 60 | 35 | 1.0 | 6.0 | 0.00 | 0.00 | 0.00 | 64 | 1018.2 |
| 20260503040905 | 60 | 42 | 1.0 | 6.0 | 0.00 | 0.00 | 0.00 | 64 | 1018.2 |
| 20260503040804 | 60 | 53 | 1.0 | 6.0 | 0.00 | 0.00 | 0.00 | 65 | 1018.1 |
| 20260503040705 | 60 | 50 | 1.0 | 6.0 | 0.00 | 0.00 | 0.00 | 65 | 1018.1 |
| 20260503040605 | 60 | 50 | 0.0 | 6.0 | 0.00 | 0.00 | 0.00 | 64 | 1018.1 |
| 20260503040504 | 60 | 52 | 0.0 | 6.0 | 0.00 | 0.00 | 0.00 | 64 | 1018.1 |
| 20260503040404 | 60 | 65 | 0.0 | 6.0 | 0.00 | 0.00 | 0.00 | 65 | 1018.1 |
| 20260503040305 | 60 | 83 | 0.0 | 6.0 | 0.00 | 0.00 | 0.00 | 65 | 1018.2 |
| 20260503040205 | 60 | 99 | 0.0 | 5.0 | 0.00 | 0.00 | 0.00 | 65 | 1018.1 |
| 20260503040105 | 60 | 124 | 0.0 | 5.0 | 0.00 | 0.00 | 0.00 | 65 | 1018.1 |
| 20260503040005 | 60 | 174 | 0.0 | 3.0 | 0.00 | 0.00 | 0.00 | 64 | 1018.1 |
| 20260503035904 | 60 | 173 | 0.0 | 3.0 | 0.00 | 0.00 | 0.00 | 64 | 1018.1 |
| 20260503035804 | 60 | 173 | 0.0 | 3.0 | 0.00 | 0.00 | 0.00 | 64 | 1018.1 |
| 20260503035704 | 60 | 173 | 0.0 | 3.0 | 0.00 | 0.00 | 0.00 | 64 | 1018.1 |
| 20260503035604 | 60 | 173 | 0.0 | 3.0 | 0.00 | 0.00 | 0.00 | 64 | 1018.1 |
| 20260503035504 | 60 | 169 | 0.0 | 3.0 | 0.00 | 0.00 | 0.00 | 64 | 1018.2 |
| 20260503035404 | 60 | 164 | 0.0 | 3.0 | 0.00 | 0.00 | 0.00 | 65 | 1018.1 |
| 20260503035305 | 60 | 163 | 0.0 | 2.0 | 0.00 | 0.00 | 0.00 | 65 | 1018.1 |
| 20260503035204 | 60 | 164 | 0.0 | 2.0 | 0.00 | 0.00 | 0.00 | 65 | 1018.2 |
| 20260503035104 | 60 | 164 | 0.0 | 2.0 | 0.00 | 0.00 | 0.00 | 65 | 1018.2 |
| 20260503035004 | 60 | 164 | 0.0 | 2.0 | 0.00 | 0.00 | 0.00 | 65 | 1018.1 |
| 20260503034904 | 60 | 164 | 0.0 | 2.0 | 0.00 | 0.00 | 0.00 | 65 | 1018.1 |
| 20260503034804 | 60 | 164 | 0.0 | 2.0 | 0.00 | 0.00 | 0.00 | 65 | 1018.1 |
| 20260503034705 | 60 | 164 | 0.0 | 2.0 | 0.00 | 0.00 | 0.00 | 65 | 1018.1 |
| 20260503034605 | 60 | 164 | 0.0 | 2.0 | 0.00 | 0.00 | 0.00 | 65 | 1018.1 |
| 20260503034504 | 60 | 164 | 0.0 | 2.0 | 0.00 | 0.00 | 0.00 | 65 | 1018.1 |
| 20260503034405 | 60 | 164 | 0.0 | 2.0 | 0.00 | 0.00 | 0.00 | 65 | 1018.1 |
| 20260503034305 | 60 | 164 | 0.0 | 2.0 | 0.00 | 0.00 | 0.00 | 65 | 1018.1 |
| 20260503034205 | 60 | 163 | 0.0 | 2.0 | 0.00 | 0.00 | 0.00 | 65 | 1018.1 |
| 20260503034105 | 60 | 163 | 0.0 | 2.0 | 0.00 | 0.00 | 0.00 | 65 | 1018.2 |
| 20260503034006 | 60 | 163 | 0.0 | 2.0 | 0.00 | 0.00 | 0.00 | 65 | 1018.2 |
| 20260503033905 | 60 | 163 | 0.0 | 2.0 | 0.00 | 0.00 | 0.00 | 65 | 1018.2 |
| 20260503033805 | 60 | 163 | 0.0 | 2.0 | 0.00 | 0.00 | 0.00 | 65 | 1018.2 |
| 20260503033705 | 60 | 158 | 0.0 | 2.0 | 0.00 | 0.00 | 0.00 | 65 | 1018.2 |
| 20260503033605 | 60 | 156 | 0.0 | 2.0 | 0.00 | 0.00 | 0.00 | 65 | 1018.1 |
| 20260503033506 | 60 | 156 | 0.0 | 2.0 | 0.00 | 0.00 | 0.00 | 65 | 1018.1 |